[{"header": {"dx": 0.06612293990616946, "dy": 0.0552356325346848, "nx": 98, "ny": 59, "la1": 35.046912555036876, "la2": 31.78801023549047, "lo1": -121.43107172385933, "lo2": -114.95102361305473, "refTime": "2026041211", "parameterCategory": 1, "parameterNumber": 2}, "data": [14.6, 14.6, 14.58, 14.58, 14.58, 14.58, 14.58, 14.6, 14.62, 14.5, 13.62, 11.42, 12.08, 10.96, 10.14, 6.44, 2.6, 5.95, 7.59, 8.93, 10.0, 8.22, 6.7, 7.59, 7.59, 7.9, 8.58, 6.44, 5.75, 4.15, 3.53, 1.84, -0.0, -0.0, -8.94, 9.39, 10.28, 8.94, 7.6, 3.6, -0.0, 1.93, 3.68, 7.19, 11.44, 13.99, 15.93, 17.43, 17.02, 14.39, 11.33, 10.37, 10.37, 9.76, 10.43, 10.59, 10.59, 10.99, 11.5, 11.5, 11.99, 11.64, 9.17, 5.8, 6.67, 8.59, 10.52, 12.11, 13.19, 14.7, 14.7, 13.86, 12.94, 11.84, 12.42, 12.14, 12.27, 13.41, -13.86, -12.14, -9.55, -9.6, -8.58, -8.23, -7.27, -6.42, -4.8, -2.71, 0.0, 6.21, 8.53, 8.85, 9.42, 10.23, 10.55, 7.19, 0.0, 0.0, 14.16, 14.6, 14.58, 14.58, 14.58, 14.58, 15.02, 15.05, 14.62, 14.64, 13.18, 12.75, 11.4, 10.66, 11.28, 6.2, 3.25, 8.22, 5.95, 7.27, 7.24, 6.21, 6.21, 6.97, 7.59, 8.58, 7.27, 5.7, 2.6, 1.84, 1.44, 1.5, 1.91, -0.0, -8.05, 8.49, 8.05, 8.05, 8.49, 6.32, 1.93, 2.28, 5.8, 11.17, 15.2, 16.96, 18.84, 17.98, 16.12, 12.56, 11.26, 10.55, 10.55, 10.79, 10.73, 11.09, 11.16, 11.5, 11.77, 12.21, 12.25, 10.12, 5.8, 4.81, 7.19, 9.17, 11.37, 12.66, 13.89, 14.94, 15.36, 15.41, 13.57, 12.66, 12.83, 12.83, 12.04, 13.41, -13.86, -12.14, -9.55, -9.6, -8.58, -8.23, -7.27, -6.42, -4.8, -2.71, 0.0, 6.21, 8.53, 8.85, 9.42, 10.23, 10.55, 7.19, 0.0, 0.0, 14.16, 14.6, 14.6, 14.37, 14.37, 14.31, 15.02, 15.05, 15.07, 14.06, 12.3, 10.11, 11.44, 11.55, 10.52, 5.95, 3.53, 6.2, 5.0, 5.6, 5.0, 5.2, 6.97, 7.54, 8.85, 7.27, 6.95, 5.46, -0.0, -0.0, -0.0, 1.25, 2.16, 1.75, -0.0, -0.0, 5.69, 8.94, 9.39, 5.7, 1.91, 4.38, 12.57, 16.44, 19.08, 19.64, 19.64, 18.22, 13.01, 12.3, 11.12, 11.16, 11.26, 11.26, 10.61, 11.99, 11.72, 11.99, 12.21, 12.45, 11.64, 6.67, 4.1, 5.8, 8.3, 10.55, 10.99, 12.11, 12.65, 13.8, 14.18, 14.57, 13.99, 12.72, 12.83, 12.39, 12.42, 13.57, -13.86, -13.15, -11.4, -10.79, -10.0, -8.23, -8.03, -8.03, -7.27, -2.71, 2.37, 7.02, 9.13, 10.12, 9.48, 10.47, 11.6, 12.96, 12.96, 11.99, 14.16, 14.16, 14.6, 14.37, 14.37, 14.31, 14.81, 14.86, 14.47, 13.62, 11.86, 10.54, 11.84, 11.12, 11.02, 6.2, -0.0, -0.0, -0.0, 2.19, 4.15, 3.39, 6.2, 9.08, 7.59, 7.9, 7.27, 6.95, -0.0, -4.6, -3.53, -1.28, -0.0, 2.6, 4.83, 5.21, 6.95, 10.0, 11.28, 6.0, 5.09, 9.66, 15.01, 16.85, 17.26, 16.54, 15.2, 12.07, 12.27, 12.71, 11.62, 12.3, 11.6, 10.87, 10.87, 11.6, 11.6, 12.45, 12.45, 12.72, 9.17, 2.13, 3.96, 7.19, 9.17, 9.84, 9.76, 9.48, 9.97, 11.06, 12.01, 12.9, 13.59, 12.36, 11.45, 12.07, 11.91, 13.41, -11.06, -12.72, -11.18, -11.45, -10.79, -10.38, -10.6, -10.79, -8.22, -2.37, 3.96, 8.31, 11.77, 11.33, 9.48, 12.96, -0.0, 5.8, 13.41, 12.72, 14.16, 14.16, 14.6, 14.58, 14.58, 14.31, 14.81, 14.86, 14.47, 13.62, 11.86, 10.54, 11.4, 11.11, 10.73, 6.45, -0.0, -0.0, -0.0, -0.0, 3.04, 6.2, 7.59, 8.22, 8.58, 8.94, 7.9, 6.71, 3.53, -4.4, -7.27, -6.17, -3.68, 1.64, 6.98, 7.9, 7.9, 12.3, 15.34, 4.45, 3.16, 9.67, 10.75, 10.3, 11.6, 11.21, 11.71, 12.52, 12.14, 12.58, 11.6, 12.04, 11.2, 11.2, 10.87, 11.6, 11.85, 12.25, 12.85, 12.33, 5.8, -0.0, 4.24, 7.69, 8.31, 7.95, 7.89, 7.44, 7.63, 9.39, 11.52, 14.12, 14.93, 14.42, 11.88, 10.96, 0.0, -12.52, -14.3, -12.74, -11.03, -11.61, -10.79, -11.4, -11.18, -10.35, -5.6, 2.54, 6.65, 9.39, 10.75, 11.53, -0.0, -0.0, -0.0, 11.6, 13.41, 13.01, 14.16, 14.16, 14.16, 14.58, 14.58, 14.58, 15.02, 14.42, 14.47, 13.62, 11.86, 10.08, 10.96, 10.66, 11.18, 6.2, -0.0, -0.0, -2.93, -3.04, -0.0, 4.48, 7.44, 9.17, 8.53, 8.53, 8.22, 6.98, 6.71, 2.71, -2.28, -7.81, -6.95, -0.0, 10.73, 11.16, 11.26, 12.98, 16.91, -0.0, -0.0, 5.31, 7.51, 8.24, 8.85, 9.62, 10.01, 11.2, 11.87, 10.41, 9.66, 10.73, 11.2, 11.2, 11.92, 12.3, 12.3, 12.66, 13.09, 11.5, 2.54, -0.0, 4.24, 6.4, 6.8, 7.42, 7.73, 7.44, 8.05, 8.87, 11.2, 13.05, 14.08, 14.88, 15.99, 12.02, -12.96, -12.52, -12.07, -11.84, -11.61, -11.09, -11.45, -11.03, -9.97, -6.21, 0.0, 6.4, 9.09, 8.43, 7.93, 13.41, -0.0, -8.85, 12.52, 12.96, 12.45, 11.99, 14.16, 14.16, 14.16, 14.58, 14.58, 14.58, 14.58, 14.6, 14.03, 13.62, 11.98, 9.75, 10.68, 10.66, 12.07, 7.9, -0.0, -0.0, -3.96, -6.94, -9.17, -6.4, 6.6, 13.02, 12.65, 12.27, 12.65, 6.4, 5.8, 4.8, 4.8, -0.0, -0.0, 4.4, 8.22, 9.8, 11.17, 12.39, 12.39, -0.0, -4.52, 3.14, 6.9, 7.44, 9.44, 9.17, 9.17, 8.01, 8.53, 8.85, 7.82, 9.42, 11.2, 12.04, 12.39, 12.86, 12.96, 12.96, 12.96, 9.17, -0.0, -0.0, 4.38, 5.99, 5.81, 8.88, 9.47, 10.1, 10.12, 11.72, 13.19, 13.84, 14.65, 15.68, 15.85, 15.46, 10.43, -12.52, -12.07, -11.62, -11.45, -10.4, -9.08, -8.94, -6.71, -1.98, 2.35, 7.0, 8.68, 3.36, 0.0, -12.96, -13.41, -12.96, 12.52, 10.79, 11.5, 10.73, 13.72, 14.16, 14.16, 14.14, 14.58, 14.58, 14.58, 14.6, 14.18, 13.31, 11.09, 9.75, 10.23, 11.11, 12.52, 10.0, -0.0, -0.0, -0.0, -6.0, -11.99, -13.41, 0.0, 15.65, 15.2, 15.2, 11.06, 5.09, 3.58, 8.05, 5.4, 2.93, 3.96, 3.96, 7.9, 8.85, 11.6, 10.27, 10.4, 8.22, 4.1, -0.0, 8.93, 12.01, 12.57, 10.12, 6.94, 7.44, 6.42, 6.65, 8.22, 9.66, 11.87, 12.39, 12.52, 12.39, 12.39, 12.14, 12.07, -0.0, -0.0, 3.14, 2.72, 5.02, 6.8, 9.66, 12.03, 13.68, 14.75, 14.68, 14.75, 15.2, 15.2, 15.65, 16.09, 15.15, 14.31, 9.8, -11.87, -14.3, -13.02, -9.42, -7.9, -5.98, -4.48, 0.0, 2.81, 6.6, 3.36, -5.4, -12.07, -11.2, -12.72, -13.41, 6.0, 10.73, 10.47, 9.48, 13.72, 14.16, 14.16, 13.94, 14.37, 14.37, 14.37, 14.6, 14.18, 12.86, 11.53, 11.36, 12.83, 12.88, 12.52, 11.87, -0.0, -0.0, -0.0, -0.0, -0.0, 13.41, -13.86, 0.0, 0.0, 11.18, 9.83, -0.0, 4.95, 7.93, 4.38, -0.0, -0.0, 6.2, 6.94, 9.67, 11.18, 11.18, 9.97, 8.55, 9.17, 6.6, 10.43, 11.2, 9.97, 5.92, 4.39, 5.63, 7.21, 8.15, 8.59, 9.42, 10.35, 11.84, 12.07, 11.03, 9.97, 9.67, 0.0, -0.0, 3.36, 3.68, 4.1, 5.46, 7.1, 10.75, 13.76, 15.41, 15.53, 13.99, 13.81, 13.99, 14.42, 14.13, 13.7, 14.16, 14.75, 14.55, 13.44, 16.09, 16.54, -11.44, -7.59, -6.97, -2.82, 0.0, 5.8, 12.96, 11.18, 11.62, -0.0, -0.0, -11.87, -9.8, 6.2, 10.82, 9.8, 9.48, 13.72, 13.72, 13.94, 13.94, 14.37, 14.37, 14.37, 14.42, 14.03, 12.74, 12.3, 12.71, 11.84, 13.18, 13.8, 13.28, 10.12, -0.0, -0.0, 9.48, 11.6, 9.17, -0.0, -0.0, 14.3, 8.22, -0.0, -0.0, 4.66, 4.52, -0.0, -16.54, -15.65, 13.86, 12.07, 10.0, 10.73, 8.4, 8.22, 7.19, 7.19, 9.17, 9.3, 8.82, 6.42, 2.42, 3.68, 5.86, 8.54, 8.91, 7.43, 6.42, 6.51, 6.43, 8.53, 10.4, 10.4, 0.0, 0.0, -0.0, 2.81, 3.22, 3.2, 5.15, 6.95, 10.75, 12.7, 14.79, 14.3, 9.8, 8.05, 9.48, 12.13, 13.19, 13.15, 13.88, 15.2, 14.3, 12.52, 14.75, 16.91, 15.36, 0.0, 7.59, 10.28, 9.33, 9.2, 9.97, 10.6, 11.18, 12.07, 5.4, -0.0, 0.0, 6.2, 9.8, 9.8, 9.48, 13.72, 13.55, 13.94, 14.37, 14.37, 14.37, 14.37, 14.42, 14.03, 13.18, 12.74, 13.62, 13.44, 13.44, 14.07, 14.3, 13.99, 11.06, 14.84, 16.48, 16.54, 14.51, 9.42, 10.43, 13.19, 9.17, 7.27, 4.6, 5.8, 6.2, -0.0, 12.96, -12.07, -11.18, 11.18, 10.8, 8.22, 5.2, 6.7, 8.31, 7.93, 9.48, 10.4, 7.9, 2.1, 1.28, 4.8, 6.98, 6.98, 5.0, 3.56, 3.28, 3.38, 2.64, 2.72, 2.8, 3.92, 4.24, -10.8, -2.13, 0.92, 2.72, 3.93, 5.3, 6.37, 6.8, 7.98, 8.56, 7.76, 12.3, 6.94, 8.1, 9.16, 10.12, 11.09, 12.39, -14.3, 12.96, 12.52, 13.41, 14.75, 13.8, 13.2, 12.04, 11.03, 9.6, 9.2, 10.52, 10.73, 11.18, 11.18, 12.07, 12.52, 9.17, 7.44, 8.05, 7.44, 0.0, 13.72, 13.55, 13.94, 14.37, 14.37, 14.37, 14.37, 14.42, 14.03, 13.18, 13.18, 13.44, 14.31, 13.88, 13.05, 12.41, 12.44, 13.19, 15.27, 16.66, 16.22, 15.78, 15.18, 16.09, 13.41, 12.96, 11.87, 7.47, 10.6, 7.27, 10.73, 11.62, 11.62, 9.83, 10.73, 7.27, 5.7, 6.7, 6.94, 8.05, 8.31, 9.48, 6.7, 3.53, -0.0, 1.84, 2.6, 2.1, 1.84, -0.0, 0.8, 0.76, 0.75, 0.8, 0.8, 2.45, 5.46, 8.43, 6.67, -1.17, -0.0, 3.58, 4.05, 4.34, 3.58, 4.1, 4.91, 5.27, 5.65, 6.64, 8.4, 10.12, 12.96, 7.19, 4.1, 0.0, 13.86, 13.41, 12.52, 9.48, 13.86, 11.99, 11.2, 13.56, 11.2, 11.6, 10.88, 9.75, 10.52, 10.73, 10.73, -10.73, 11.18, 12.07, 5.6, 3.96, 0.0, -5.6, 13.55, 13.5, 13.94, 14.37, 14.37, 14.37, 14.37, 13.67, 13.82, 13.44, 13.44, 13.88, 14.31, 14.75, 15.23, 14.94, 14.3, 12.72, 12.58, 13.41, 13.41, 13.41, 13.41, 13.41, 13.41, 13.41, 13.33, 13.33, 11.95, 9.7, 10.73, 11.62, 10.4, 7.9, 7.27, 6.95, 7.27, 5.0, 3.68, 5.4, 5.6, 4.65, 2.93, -0.0, -0.0, -0.0, -0.0, -0.0, -0.0, -0.0, -0.0, -0.0, -0.86, -0.89, -0.0, 1.73, 4.24, 9.2, 7.82, 0.97, -0.0, 3.46, 4.38, 1.9, 0.81, 1.64, 2.54, 3.93, 5.57, 9.54, 11.19, 10.57, 10.17, 8.85, 12.07, 9.8, 13.86, 12.79, 12.72, 8.85, 0.0, 11.62, 12.52, 13.41, 11.6, 12.79, 13.57, 12.14, 10.58, 10.52, 9.83, -10.28, -11.18, -8.22, -3.82, -5.4, -6.7, -11.45, 13.55, 13.5, 13.5, 13.94, 14.37, 13.94, 13.67, 13.67, 13.75, 13.82, 13.88, 13.88, 14.31, 14.94, 15.61, 15.82, 16.09, 15.08, 14.47, 14.3, 14.3, 14.3, 14.75, 15.65, 15.65, 15.65, 14.3, 14.23, 13.77, 12.96, 11.62, 11.62, 12.07, 7.59, 7.27, 6.95, 4.2, 3.25, 3.25, 3.39, 2.82, 2.71, -0.0, -0.0, -0.0, -2.39, -1.4, -1.93, -2.1, -0.0, -0.0, -1.76, -2.63, -3.36, -4.1, -0.0, 2.93, 10.86, 10.12, 2.0, -0.0, 2.91, 1.33, -0.0, -0.0, 0.92, 1.93, 3.3, 6.57, 9.24, 13.08, 11.7, 11.33, 9.89, 11.03, 14.75, 12.52, 10.75, 11.8, 13.19, 13.41, 11.2, 12.27, 13.75, 12.39, 13.09, 14.07, 13.59, 10.84, 10.32, 9.54, 10.28, -11.18, -11.03, -7.59, -8.22, -9.67, -11.62, 13.5, 13.5, 13.5, 13.94, 13.94, 13.94, 13.94, 13.67, 13.75, 13.82, 13.88, 14.31, 14.31, 14.94, 15.61, 16.05, 16.37, 16.54, 16.09, 15.65, 15.2, 15.2, 15.65, 16.09, 16.09, 16.54, 16.09, 15.65, 15.2, 14.75, 13.86, 12.52, 12.07, 10.73, 7.27, 6.95, 4.6, 4.2, 5.0, 4.6, 3.39, -0.0, -0.0, -0.0, -0.0, -0.0, -2.97, -4.2, -4.0, -3.11, -0.0, -0.0, -3.11, -6.01, 8.94, 8.94, -0.0, 8.73, 8.85, 3.04, -0.0, 1.44, -0.0, -0.0, -0.0, 1.43, 1.53, 3.68, 6.0, 9.73, 11.7, 16.6, 14.1, 13.8, 14.16, 11.06, 9.88, 11.06, 12.11, 13.02, 13.89, 13.67, 12.52, 11.2, 6.21, 13.15, 13.86, 13.34, 11.84, 11.71, 10.6, 10.73, -10.0, -10.0, -9.3, -11.03, -11.62, -11.62, 13.5, 13.5, 13.5, 13.94, 13.94, 13.94, 13.94, 13.67, 13.75, 14.03, 14.5, 14.5, 14.5, 14.94, 15.38, 15.61, 16.22, 16.99, 16.99, 16.54, 16.09, 16.09, 16.09, 16.54, 16.54, 16.54, 16.54, 16.09, 15.65, 15.2, 15.2, 15.2, 13.86, 11.62, 10.28, 8.0, 6.95, 6.95, 7.9, 7.59, 4.6, -0.0, -0.0, -0.0, -0.0, -4.2, -2.97, -4.96, -6.32, -6.01, -4.0, -0.0, -0.0, -0.0, 8.49, 8.49, 6.01, 6.95, 5.2, 3.68, 1.28, -0.0, -0.0, -1.76, -0.0, -0.0, -0.0, 4.1, 6.2, 10.12, 12.79, 16.94, 18.78, 16.15, 15.77, 8.05, 8.91, 10.75, 11.95, 12.73, 13.54, 14.17, 13.43, 12.71, 3.68, 0.0, 11.12, 13.23, 13.41, 12.96, 12.42, 0.0, -10.0, -7.9, 0.0, -7.59, -11.18, -11.18, 13.5, 13.5, 13.94, 13.5, 13.5, 13.94, 13.94, 14.1, 13.75, 14.03, 14.47, 14.5, 14.94, 14.94, 15.38, 15.18, 15.38, 16.47, 16.99, 16.99, 16.31, 16.09, 16.09, 16.09, 16.09, 16.09, 16.09, 16.09, 16.09, 16.54, 16.99, 16.99, 16.09, 14.3, 8.94, 8.67, 8.91, 9.6, 7.27, 7.27, -0.0, -0.0, -0.0, -0.0, -0.0, -4.2, -4.2, -4.2, -6.32, -6.32, -8.94, -0.0, -0.0, -0.0, -0.0, 6.64, 4.4, 3.25, 6.2, 5.2, 5.0, -0.0, -2.39, -5.46, -4.4, -2.83, -0.0, -0.0, 6.67, 11.26, 13.79, 15.3, 18.21, 16.99, 8.65, 8.33, 10.76, 12.45, 13.76, 12.89, 12.65, 13.42, 13.37, 12.74, 12.96, -6.45, 2.28, 11.6, 13.01, 13.41, 12.07, 11.18, 10.0, 5.2, 8.22, 7.59, 11.18, 11.18, 13.5, 13.5, 13.94, 13.94, 13.5, 13.5, 13.94, 13.94, 14.18, 14.42, 14.47, 14.94, 14.75, 14.94, 14.94, 14.94, 15.38, 16.04, 16.54, 16.54, 15.87, 15.47, 15.53, 15.2, 15.65, 16.09, 16.54, 16.54, 16.54, 17.43, 17.43, 17.88, 17.88, 16.09, 12.52, 8.49, 8.94, 10.28, 9.6, 7.27, -0.0, -0.0, -0.0, -0.0, -0.0, -0.0, -0.0, -0.0, -0.0, -0.0, 9.39, 9.83, 9.83, -0.0, -0.0, -0.0, 4.4, 4.6, 7.59, 7.9, 6.2, 3.39, -0.0, -3.11, -5.63, -5.86, -5.29, -0.0, 7.59, 11.06, 15.65, 16.99, 20.12, 15.99, 10.89, 12.01, 14.33, 15.99, 16.97, 14.3, 13.52, 13.39, 13.23, 12.81, 12.96, -11.6, -11.6, 0.0, 6.0, 13.15, 13.15, 11.87, 11.46, 11.4, 10.4, 10.84, 11.18, 11.18, 13.5, 13.5, 13.5, 13.94, 13.5, 13.5, 13.94, 13.94, 14.18, 14.42, 14.47, 14.94, 15.18, 15.38, 14.94, 16.71, 14.47, 15.6, 15.65, 14.9, 15.43, 14.79, 14.38, 16.22, 15.2, 16.54, 13.86, 16.99, 17.43, 16.09, 17.43, 17.88, 17.88, 17.43, 15.65, 12.52, 9.83, 9.39, 9.83, 11.18, 10.28, 10.28, 10.28, -0.0, -0.0, -0.0, -0.0, -0.0, -0.0, -0.0, -0.0, -0.0, -0.0, -0.0, -0.0, -0.0, 4.4, 4.8, 7.9, 7.9, 4.8, 4.8, -0.0, -2.83, -5.63, -7.27, -5.7, -0.0, 9.83, 12.07, 13.86, 16.54, 21.54, 20.38, 18.11, 16.54, 16.05, 16.54, 17.41, 17.77, 14.21, 14.28, 13.86, 12.52, 12.96, 12.3, 12.52, 5.2, 12.96, 12.96, 13.15, 12.72, 11.91, 11.62, 11.84, 11.4, 11.62, 11.62, 13.5, 13.5, 13.44, 13.44, 13.44, 13.5, 13.94, 13.94, 14.37, 14.18, 14.47, 14.9, 15.18, 15.38, 15.38, 14.94, 14.5, 14.72, 15.65, 15.2, 16.48, 15.47, 14.79, 16.54, 16.22, 16.54, 16.54, 16.09, 16.99, 16.99, 17.43, 17.43, 17.43, 17.43, 16.99, 15.2, 12.96, 11.62, 10.28, 8.49, 8.94, 9.39, 9.39, 9.39, -0.0, -0.0, -0.0, -0.0, -0.0, -0.0, -0.0, -0.0, -0.0, -0.0, -0.0, -0.0, 4.8, 6.95, 7.27, 9.6, 7.27, -0.0, -0.0, -3.11, -4.2, -5.9, -5.7, -0.0, 9.97, 11.62, 13.36, 15.98, 22.55, 23.25, 18.09, 14.57, 12.65, 13.1, 15.12, 15.08, 15.17, 15.65, 14.75, 13.41, 12.07, 11.62, 9.6, 4.8, 8.22, 10.4, 12.96, 13.41, 12.52, 11.62, 11.84, 12.07, 11.62, 11.62, 13.5, 13.44, 13.44, 13.44, 13.44, 13.5, 13.5, 13.94, 14.37, 14.61, 14.18, 14.9, 15.38, 15.38, 15.38, 15.38, 14.65, 14.65, 12.96, 15.2, 16.99, 15.69, 15.2, 13.97, 16.33, 16.82, 16.09, 16.99, 17.43, 17.88, 17.88, 17.43, 17.43, 17.43, 16.99, 16.54, 14.75, 12.96, 11.62, 10.28, 9.39, 9.83, 9.83, 9.83, 6.64, -0.0, -0.0, 9.83, -0.0, -6.64, -4.0, -0.0, -0.0, -0.0, -0.0, -0.0, 5.7, 7.27, 9.6, -0.0, -0.0, -0.0, -0.0, -3.11, -5.21, -7.27, -6.7, -0.0, 7.9, 10.68, 12.42, 14.42, 20.36, 21.42, 17.26, 11.52, 9.8, 10.49, 11.38, 13.78, 15.12, 15.62, 15.2, 14.27, 13.36, 12.52, 10.8, 8.94, 11.18, 10.6, 11.91, 12.3, 12.14, 11.46, 12.07, 11.71, 11.4, 11.4, 13.25, 13.15, 13.15, 13.44, 13.44, 13.5, 13.5, 13.94, 14.37, 14.86, 14.86, 14.9, 14.9, 15.38, 15.38, 15.53, 15.08, 14.65, 14.73, 16.54, 16.99, 16.41, 14.79, 14.79, 16.33, 17.7, 17.43, 16.54, 16.54, 16.99, 17.43, 17.43, 17.43, 17.3, 16.86, 16.99, 15.65, 13.86, 12.52, 11.18, 10.28, 9.83, 9.39, 9.39, 8.67, 7.2, 10.28, 9.83, 9.39, -0.0, -4.0, -0.0, -0.0, -0.0, -0.0, -0.0, 2.6, 4.8, 4.8, -6.95, -4.96, -2.49, -0.0, -0.0, -2.39, -5.4, -6.94, -0.0, 3.68, 6.44, 8.59, 9.06, 13.76, 14.95, 0.0, 4.81, 7.61, 8.58, 8.55, 9.54, 12.29, 14.53, 15.65, 15.6, 15.02, 14.03, 13.15, 13.23, 12.96, 11.62, 11.35, 11.09, 12.39, 12.07, 10.4, 10.4, 11.46, 11.46, 13.15, 13.15, 13.15, 13.15, 13.44, 13.5, 13.94, 13.94, 14.37, 14.86, 14.86, 14.86, 15.34, 15.34, 15.38, 15.53, 15.08, 14.65, 15.17, 16.54, 16.99, 16.04, 14.75, 14.61, 15.9, 17.26, 17.88, 17.43, 16.99, 16.09, 16.54, 16.54, 16.54, 16.54, 16.54, 16.54, 16.09, 14.75, 12.96, 11.62, 10.73, 10.28, 9.83, 8.82, 7.89, 7.81, 9.83, 9.39, 8.94, -0.0, -0.0, -0.0, -0.0, -0.0, -0.0, -0.0, 2.49, 4.15, 5.0, -4.0, -6.64, -4.6, -0.0, -0.0, -2.39, -3.04, -4.1, -3.53, -2.19, -0.0, 2.06, 4.71, 19.99, 15.77, -6.2, -1.09, 3.47, 6.14, 6.12, 6.47, 7.66, 12.27, 14.99, 16.09, 16.09, 14.99, 14.68, 14.75, 14.23, 13.41, 12.42, 12.07, 12.07, 11.21, 10.79, 11.03, 11.53, 11.53, 13.15, 13.15, 13.15, 13.15, 13.15, 13.25, 13.25, 13.67, 14.37, 14.86, 14.86, 15.3, 15.34, 15.34, 15.34, 15.53, 15.53, 14.72, 15.62, 16.07, 16.54, 16.99, 16.05, 14.31, 14.99, 16.31, 17.43, 17.43, 17.43, 16.99, 16.09, 16.09, 16.09, 16.09, 16.09, 16.09, 16.09, 15.2, 13.41, 11.62, 10.28, 9.83, 10.28, 10.18, 8.6, 7.63, 9.83, 9.39, 8.94, 6.32, 4.0, -0.0, -0.0, -0.0, -0.0, -0.0, -0.0, 1.54, 5.0, -0.0, -4.71, -4.96, -2.28, -2.28, -2.39, -0.0, -0.0, -0.0, -2.6, -3.11, -0.0, 14.66, 23.57, 21.68, 18.24, 7.6, 0.0, 3.36, 4.24, 4.03, 5.41, 7.36, 10.43, 13.44, 14.07, 14.25, 13.86, 13.86, 13.86, 11.9, 12.3, 10.35, 11.21, 11.91, 11.62, 11.62, 11.62, 11.62, 13.15, 13.15, 13.15, 13.15, 13.15, 13.15, 13.25, 13.67, 14.1, 14.86, 14.86, 14.86, 15.3, 15.34, 15.34, 15.51, 15.51, 15.08, 15.17, 16.07, 16.09, 16.99, 16.99, 16.54, 15.55, 15.43, 16.99, 17.43, 17.43, 16.99, 16.99, 16.54, 15.65, 15.65, 16.09, 16.09, 16.09, 15.65, 14.3, 12.07, 10.28, 9.83, 9.83, 10.2, 9.54, 9.03, 8.17, 8.43, 8.94, 9.03, 7.67, 4.6, 3.8, -0.0, -0.0, -0.0, -0.0, -0.0, 2.17, 4.4, 3.11, -2.69, -4.96, -2.28, -0.0, -0.0, -0.0, 3.04, 2.71, 10.28, 11.18, 12.96, 18.52, 23.66, 20.54, 19.25, 18.96, 5.37, 3.58, 2.93, 2.89, 4.47, 8.72, 12.0, 12.25, 12.58, 12.86, 12.96, 12.72, 10.12, 12.16, 11.5, 11.99, 12.52, 11.51, 11.02, 11.18, 11.18, 13.25, 13.25, 13.15, 13.15, 13.15, 13.15, 13.25, 13.67, 14.1, 14.37, 14.86, 14.86, 15.3, 15.34, 15.34, 15.51, 15.51, 15.51, 15.61, 15.62, 15.65, 16.09, 16.99, 16.99, 16.54, 16.09, 16.09, 16.99, 17.43, 17.43, 16.99, 16.99, 16.54, 16.54, 16.09, 16.09, 16.09, 16.09, 15.65, 13.41, 11.18, 10.28, 9.77, 9.77, 10.22, 9.97, 9.54, 8.73, 8.89, 9.16, 8.63, 7.33, 6.95, 3.11, 2.83, -0.0, -0.0, -0.0, -0.0, 4.96, 4.4, 2.49, -0.0, -0.0, -0.0, -0.0, -0.0, 3.04, 7.59, 10.14, 10.73, 12.96, 14.1, 19.43, 23.34, 19.41, 18.99, 17.81, 2.28, 1.38, 1.11, 2.31, 5.19, 9.31, 10.79, 13.15, 13.28, 13.41, 12.72, 11.88, 14.42, 13.56, 13.01, 12.93, 11.18, 11.18, 11.18, 11.18, 13.25, 13.25, 13.25, 13.15, 13.15, 13.25, 13.25, 13.25, 13.67, 14.1, 14.86, 14.86, 15.3, 14.86, 15.34, 15.51, 15.51, 15.51, 15.51, 15.61, 15.62, 15.65, 16.09, 16.54, 16.54, 16.54, 16.09, 16.54, 16.99, 16.99, 16.99, 16.99, 16.99, 16.94, 16.48, 16.47, 16.44, 16.54, 16.54, 15.65, 13.86, 12.07, 10.73, 9.77, 10.22, 10.2, 10.2, 9.16, 8.73, 8.77, 9.11, 9.04, 7.68, 5.06, 4.4, 2.06, -0.0, -0.0, -0.0, 2.06, 2.28, 4.2, 5.95, 4.0, -0.0, -0.0, -0.0, 5.95, 8.03, 9.45, 10.84, 11.4, 13.67, 16.54, 18.84, 22.52, 18.8, 18.78, 0.0, 0.0, 0.0, 1.47, 2.81, 3.56, 6.94, 11.16, 13.75, 14.16, 13.86, 13.59, 13.86, 15.2, 14.42, 13.5, 12.86, 11.46, 10.96, 10.96, 13.25, 13.25, 13.25, 13.25, 13.25, 13.25, 13.25, 13.25, 13.67, 13.67, 14.37, 14.86, 14.86, 14.86, 14.86, 15.07, 15.51, 15.51, 15.51, 15.51, 15.61, 15.62, 15.65, 15.65, 16.09, 16.09, 16.09, 16.09, 16.54, 16.54, 16.54, 16.54, 16.99, 16.94, 16.94, 16.48, 16.47, 16.99, 16.99, 16.09, 14.75, 12.96, 11.18, 9.83, 10.28, 9.76, 10.2, 9.76, 9.33, 9.34, 9.33, 9.54, 9.2, 7.27, 4.8, 4.4, 2.83, 3.8, -0.0, -0.0, 3.32, 6.32, 7.87, 5.21, -0.0, -0.0, 5.0, 10.28, 9.83, 10.14, 11.11, 12.07, 12.52, 13.41, 15.91, 18.01, 22.21, 18.52, 15.87, 0.0, 2.6, 4.89, 4.81, 1.9, 3.32, 6.94, 9.48, 13.28, 14.3, 14.3, 13.86, 14.75, 16.05, 13.99, 13.44, 12.58, 11.87, 11.87, 13.25, 13.25, 13.25, 13.25, 13.25, 13.25, 13.25, 13.67, 13.67, 13.67, 14.1, 14.81, 15.3, 15.3, 15.3, 15.05, 15.07, 15.07, 15.07, 15.07, 15.51, 15.61, 15.62, 15.65, 15.65, 15.65, 15.65, 16.09, 16.54, 16.54, 16.54, 16.54, 16.54, 16.54, 16.49, 16.49, 16.54, 16.99, 16.99, 16.54, 15.65, 13.33, 11.62, 9.83, 9.26, 9.54, 10.65, 11.53, 11.53, 9.33, 9.77, 9.76, 9.46, 8.55, 5.95, 4.8, 5.95, 3.25, -0.0, -0.0, 6.32, 8.48, 8.4, 2.28, -0.0, 1.98, 6.45, 10.28, 4.4, 9.55, 11.18, 12.52, 12.52, 12.88, 13.88, 16.22, 18.45, 18.78, 18.28, 17.43, 14.53, 6.51, 7.38, 5.02, 2.54, 0.0, 4.1, 7.69, 12.79, 14.03, 14.3, 14.75, 14.64, 14.99, 13.99, 12.87, 12.14, 12.14, 13.25, 13.25, 13.25, 13.25, 13.25, 13.25, 13.25, 13.67, 13.67, 13.67, 13.67, 14.81, 14.86, 15.3, 15.74, 15.3, 15.05, 15.05, 15.07, 15.07, 15.51, 15.51, 15.51, 15.61, 15.62, 15.62, 15.17, 15.65, 16.09, 16.09, 16.09, 16.09, 16.09, 16.09, 16.54, 16.54, 16.54, 16.54, 16.99, 16.99, 16.09, 14.3, 12.52, 9.6, 7.71, 9.46, 11.95, 13.31, 13.31, 12.44, 11.11, 9.33, 9.46, 8.18, 7.27, 6.87, 5.95, 5.95, 4.8, 3.11, 8.3, 8.0, 5.1, -0.0, -0.0, 2.95, 5.92, 9.66, 6.64, 5.9, 11.18, 10.8, 12.62, 16.31, 15.18, 15.74, 15.35, 15.38, 17.88, 20.09, 19.64, 17.61, 14.47, 13.02, 12.98, 12.79, 11.53, 13.15, 13.86, 14.3, 13.28, 12.79, 13.19, 14.99, 14.42, 13.62, 13.02, 13.02, 12.82, 12.82, 13.25, 13.25, 13.25, 13.25, 13.15, 13.57, 13.57, 14.1, 14.1, 13.67, 14.81, 14.86, 15.3, 15.3, 15.3, 15.49, 15.49, 15.51, 15.51, 15.51, 15.51, 15.51, 15.61, 15.62, 15.17, 14.72, 15.2, 15.65, 16.09, 15.65, 15.65, 15.65, 16.09, 16.09, 16.54, 16.54, 16.54, 16.99, 16.54, 15.14, 12.75, 10.28, 8.3, 9.97, 12.58, 14.03, 14.03, 13.15, 11.35, 9.16, 8.91, 8.15, 7.56, 7.27, 6.87, 6.2, 5.95, 7.59, 7.51, 5.86, 4.0, -0.0, -0.0, 1.84, 5.46, 6.95, 8.23, 10.28, 3.11, 5.95, 10.62, 15.99, 19.68, 17.62, 13.62, 10.75, 12.07, 18.55, 21.38, 20.8, 17.83, 15.03, 15.65, 16.09, 15.62, 15.15, 13.59, 12.25, 11.72, 11.31, 11.97, 13.19, 13.8, 13.97, 13.15, 13.15, 12.52, 12.52, 12.52, 12.93, 13.25, 13.15, 13.15, 13.57, 13.57, 13.99, 14.1, 14.1, 14.37, 15.25, 15.3, 15.3, 15.3, 15.74, 15.93, 15.93, 15.93, 15.95, 15.51, 15.51, 15.51, 15.61, 15.17, 14.27, 16.09, 14.75, 15.65, 16.09, 16.01, 15.65, 15.65, 16.09, 16.09, 16.54, 16.54, 16.54, 16.54, 15.59, 13.44, 10.78, 9.92, 10.78, 12.58, 14.31, 13.67, 12.31, 10.08, 8.77, 8.73, 8.48, 8.79, 8.0, 7.27, 6.87, 6.87, 7.15, 6.44, 4.2, 3.15, 2.06, -0.0, -0.0, 3.6, 6.64, 7.27, 7.59, 5.06, 7.27, 10.73, 14.94, 19.33, 21.66, 10.33, 0.0, 7.19, 13.41, 18.31, 18.69, 17.4, 16.09, 16.54, 16.48, 16.86, 15.87, 14.03, 12.1, 11.6, 11.38, 11.99, 12.99, 13.56, 13.7, 13.28, 13.28, 12.52, 12.52, 12.52, 12.93, 12.79, 12.79, 13.15, 13.57, 13.57, 13.99, 13.99, 14.1, 14.1, 14.37, 15.25, 15.3, 15.3, 15.3, 15.49, 15.93, 15.93, 15.93, 15.95, 15.51, 15.07, 15.17, 15.17, 14.28, 13.83, 15.65, 14.75, 15.65, 16.09, 16.09, 16.09, 16.09, 16.09, 16.54, 16.54, 16.54, 16.54, 16.04, 14.11, 11.64, 10.35, 11.21, 12.79, 13.67, 13.7, 11.33, 9.11, 8.77, 8.77, 8.73, 8.91, 8.34, 7.87, 7.27, 6.87, 7.15, 6.24, 4.71, 5.21, 2.54, 2.06, 2.54, 3.6, 5.1, 6.95, 8.38, 7.9, 9.96, 11.62, 14.3, 19.01, 24.66, 18.78, -7.44, 1.43, 11.42, 15.6, 16.29, 16.09, 16.37, 16.95, 17.86, 17.86, 16.48, 14.03, 12.04, 10.61, 10.24, 11.85, 13.02, 13.67, 13.77, 13.28, 13.28, 12.52, 12.52, 12.52, 12.18, 12.39, 12.39, 12.62, 13.2, 13.57, 13.99, 13.99, 14.42, 14.1, 14.37, 14.81, 15.25, 15.25, 15.25, 15.49, 15.93, 15.93, 16.37, 15.93, 15.93, 15.05, 15.07, 15.17, 14.72, 14.72, 14.72, 14.71, 15.2, 15.65, 15.65, 16.09, 16.09, 16.09, 16.09, 16.54, 16.54, 16.54, 16.48, 14.99, 12.75, 11.44, 11.44, 12.35, 13.67, 13.5, 11.76, 9.58, 9.26, 9.24, 9.21, 9.33, 8.34, 8.23, 7.81, 7.27, 6.87, 6.97, 6.95, 4.96, 5.21, 1.67, 3.15, 4.14, 5.69, 7.81, 8.82, 8.0, 10.79, 12.07, 13.41, 17.88, 23.34, 20.09, 16.79, 0.0, 9.77, 13.97, 15.18, 16.31, 13.59, 16.12, 17.43, 17.88, 16.07, 13.67, 11.2, 8.53, 8.85, 11.2, 12.66, 13.59, 14.1, 13.35, 13.35, 12.52, 12.52, 12.52, 12.18, 12.39, 12.17, 12.17, 12.56, 13.43, 13.86, 14.42, 14.42, 14.75, 14.31, 14.31, 14.81, 14.81, 14.81, 14.81, 15.49, 15.93, 15.93, 15.93, 15.93, 15.49, 15.05, 15.07, 14.72, 14.72, 15.17, 15.16, 15.15, 15.2, 15.2, 15.65, 15.65, 16.09, 16.09, 16.54, 16.54, 16.54, 16.04, 15.15, 13.23, 11.88, 11.44, 12.31, 13.23, 13.01, 12.58, 10.45, 9.97, 9.7, 9.64, 9.33, 8.8, 8.23, 7.81, 7.81, 8.22, 7.56, 6.97, 4.2, 2.28, 2.28, 4.96, 5.69, 7.6, 8.3, 7.81, 6.95, 9.08, 11.92, 13.23, 15.65, 17.61, 19.3, 18.42, 19.67, 15.59, 11.87, 14.39, 7.4, 9.92, 14.39, 15.93, 16.05, 14.11, 11.5, 10.37, 8.85, 8.53, 11.87, 12.35, 13.28, 13.72, 13.7, 13.7, 12.63, 12.63, 12.63, 12.52, 12.79, 12.17, 12.56, 12.27, 12.65, 13.43, 14.28, 14.42, 14.42, 13.99, 14.31, 14.75, 14.81, 14.81, 14.81, 15.25, 15.49, 15.93, 15.93, 15.93, 15.49, 15.05, 15.05, 14.62, 14.72, 15.07, 15.07, 15.15, 14.69, 14.75, 14.75, 15.2, 15.65, 15.65, 16.09, 16.09, 16.09, 16.09, 15.59, 13.36, 11.88, 11.44, 11.88, 12.75, 13.19, 12.79, 11.46, 10.14, 9.7, 9.68, 9.6, 8.8, 7.81, 7.27, 7.27, 8.82, 9.16, 7.27, 4.4, 3.6, 4.71, 6.64, 7.63, 8.06, 6.32, 4.0, 5.52, 7.27, 12.25, 13.55, 14.71, 15.65, 16.66, 18.19, 20.2, 22.71, 18.8, 11.06, -0.0, 11.9, 13.15, 13.15, 11.09, 9.48, 9.17, 10.79, 10.79, 11.87, 11.87, 12.96, 12.96, 13.41, 13.75, 13.75, 12.21, 12.21, 12.63, 12.89, 13.25, 12.79, 13.02, 12.27, 12.65, 13.19, 13.59, 14.28, 14.28, 14.28, 14.31, 14.31, 14.75, 14.81, 14.81, 15.25, 15.46, 15.46, 15.93, 15.93, 15.49, 15.05, 15.05, 14.62, 14.62, 15.07, 15.07, 15.05, 14.7, 14.75, 14.75, 14.75, 14.75, 15.2, 15.65, 16.09, 16.09, 16.09, 15.2, 12.86, 10.23, 10.68, 11.57, 12.47, 12.91, 12.91, 12.03, 11.02, 10.14, 9.68, 9.64, 8.8, 7.27, 6.77, 8.15, 8.49, 9.16, 7.85, 4.4, 4.71, 4.71, 7.81, 7.63, 4.71, 1.47, 2.46, 4.66, 8.23, 11.2, 14.39, 16.54, 14.75, 14.55, 17.43, 20.54, 22.66, 20.92, 16.99, 15.2, 13.86, 13.44, 12.87, 11.09, 11.16, 12.72, 12.72, 12.3, 12.52, 12.52, 12.96, 12.96, 12.96, 12.96, 13.41, 12.46, 12.46, 12.89, 12.89, 13.32, 13.25, 13.57, 13.44, 13.19, 12.9, 13.59, 14.11, 14.28, 14.66, 14.66, 14.31, 14.31, 14.75, 14.81, 15.25, 15.46, 15.46, 15.49, 15.93, 15.49, 15.05, 14.6, 14.6, 14.62, 14.62, 15.07, 14.62, 14.58, 14.69, 14.75, 14.75, 14.3, 15.2, 15.14, 15.59, 15.65, 16.09, 14.75, 12.07, 9.79, 10.68, 11.57, 12.52, 13.41, 12.96, 12.47, 11.57, 10.56, 9.68, 9.42, 8.99, 7.27, 7.27, 8.94, 9.48, 9.16, 8.53, 6.44, 6.01, 5.69, 7.44, 4.71, 1.14, 1.2, 2.69, 4.96, 7.27, 9.82, 12.13, 16.75, 18.16, 12.79, 13.58, 18.04, 20.23, 18.33, 16.86, 17.43, 11.38, 13.86, 13.86, 13.44, 13.01, 13.41, 12.96, 12.96, 12.96, 12.52, 12.52, 11.87, 12.27, 11.87, 12.96, 12.46, 12.46, 12.46, 13.11, 13.55, 13.55, 13.99, 13.94, 14.23, 13.48, 14.9, 14.56, 14.66, 14.66, 14.75, 14.31, 14.31, 14.31, 14.81, 15.02, 15.46, 15.46, 15.46, 15.49, 15.49, 15.05, 14.6, 14.6, 14.16, 14.18, 14.62, 14.62, 14.6, 14.55, 14.3, 14.75, 14.3, 14.3, 15.14, 15.14, 15.59, 15.59, 14.75, 12.07, 10.73, 12.02, 13.86, 14.3, 14.3, 13.86, 12.91, 12.02, 10.56, 10.12, 9.49, 9.13, 8.23, 8.15, 9.48, 9.48, 9.82, 9.16, 6.64, 6.64, 7.44, 5.21, -0.0, -0.0, 1.4, 4.6, 4.0, 4.66, 7.26, 9.48, 13.59, 17.53, 20.54, 19.22, 16.55, 14.84, 13.99, 14.79, 12.64, -8.0, -10.75, 13.86, 13.41, 13.41, 12.96, 12.52, 12.52, 12.52, 12.14, 11.87, 10.41, 10.8, 10.04, 11.87, 12.46, 12.46, 12.46, 13.15, 13.15, 13.59, 13.55, 14.16, 14.14, 14.7, 14.55, 14.51, 14.66, 14.75, 14.31, 14.31, 14.31, 14.31, 14.31, 15.02, 15.02, 15.02, 15.02, 15.46, 15.49, 15.49, 14.6, 14.16, 14.16, 14.18, 14.18, 14.62, 14.62, 14.58, 14.25, 14.3, 14.3, 13.86, 14.23, 14.69, 14.51, 14.99, 14.26, 12.47, 11.62, 12.96, 15.2, 15.58, 14.68, 14.23, 13.8, 12.47, 10.56, 9.7, 9.54, 9.24, 8.55, 8.73, 9.6, 10.0, 9.82, 9.82, 10.01, 6.95, 5.21, 2.28, 1.67, -0.0, 1.67, 2.97, 2.58, 3.7, 6.44, 9.67, 10.73, 14.88, 17.1, 22.11, 22.27, 17.27, 11.06, -12.33, -6.22, -13.28, -7.4, 0.0, 12.96, 12.96, 12.96, 12.96, 12.14, 12.14, 11.2, 8.85, 10.01, 8.53, 8.53, 8.53, 12.04, 12.04, 12.46, 12.68, 13.15, 13.15, 13.74, 14.16, 14.16, 14.26, 14.58, 14.55, 14.31, 14.31, 14.31, 14.31, 14.31, 14.31, 14.31, 14.58, 15.02, 15.02, 15.02, 15.02, 15.02, 15.05, 14.6, 14.16, 14.16, 13.72, 13.74, 13.74, 14.18, 14.16, 14.11, 13.79, 13.86, 13.41, 13.79, 14.03, 14.07, 14.07, 13.67, 12.35, 11.91, 13.36, 14.75, 15.2, 14.3, 13.8, 13.36, 12.02, 9.8, 9.26, 9.7, 9.24, 8.93, 9.1, 10.0, 10.27, 10.09, 9.82, 9.46, 7.27, 5.46, 4.2, 2.28, 2.28, 1.67, 1.54, 2.97, 5.36, 9.6, 8.54, 10.41, 10.86, 16.06, 21.61, 23.64, 21.46, 19.92, 19.34, 0.0, -18.39, -16.54, -9.48, 0.0, 12.96, 11.6, 12.58, 11.2, 10.01, 8.85, 8.85, 8.53, 8.53, 8.53, 8.53, 12.04, 12.04, 12.46, 12.46, 13.11, 13.15, 13.74, 13.72, 13.72, 14.16, 14.14, 14.58, 14.37, 14.37, 14.37, 14.55, 14.55, 14.55, 14.55, 14.55, 15.02, 15.02, 15.02, 15.02, 15.02, 15.05, 14.6, 14.16, 13.72, 13.72, 13.29, 13.29, 13.29, 13.74, 14.14, 13.36, 13.41, 13.41, 13.41, 13.34, 13.59, 13.37, 12.94, 11.64, 11.21, 12.79, 14.26, 14.3, 13.41, 12.52, 12.07, 11.18, 9.36, 9.36, 9.7, 9.49, 9.6, 9.38, 10.0, 10.27, 10.09, 10.48, 9.82, 8.53, 5.7, 4.4, 2.28, -0.0, -0.0, 1.75, 5.36, 6.32, 7.33, 7.9, 8.49, 9.88, 12.56, 18.57, 20.76, 21.61, 21.46, 20.97, 23.62, -11.0, -19.52, -13.59, 0.0, 5.8, 9.17, 10.37, 10.01, 8.85, 7.54, 6.94, 8.53, 12.07, 12.07, 12.07, 12.04, 12.04, 12.46, 12.46, 13.11, 13.11, 13.55, 13.55, 13.99, 13.99, 13.99, 14.37, 14.37, 14.37, 14.58, 14.58, 14.58, 14.58, 14.55, 14.55, 15.02, 15.02, 15.02, 15.02, 15.02, 15.02, 14.6, 14.16, 13.72, 13.28, 13.28, 13.29, 13.29, 13.15, 13.28, 13.23, 12.9, 13.33, 13.41, 13.33, 13.34, 13.19, 12.51, 11.21, 10.78, 11.88, 13.19, 13.36, 13.36, 12.07, 11.18, 10.28, 8.94, 9.36, 9.7, 9.36, 9.2, 9.38, 10.0, 10.27, 10.27, 10.09, 9.82, 8.22, 7.24, 4.4, 2.83, 2.83, -0.0, 4.2, 5.21, 5.36, 4.2, 6.58, 8.15, 10.16, 12.72, 13.99, 17.19, 16.58, 18.29, 22.05, 24.26, 25.26, -15.49, -17.59, 11.38, 9.17, 7.78, 8.85, 9.17, 5.4, 6.94, 8.53, 12.07, 11.62, 11.62, 11.62, 12.04, 12.04, 12.46, 12.46, 12.46, 13.11, 13.11, 13.55, 13.99, 13.99, 13.99, 13.99, 14.42, 14.37, 14.58, 14.58, 14.58, 14.58, 14.58, 14.55, 14.55, 15.02, 15.02, 15.02, 15.02, 15.02, 14.58, 14.16, 13.72, 13.55, 13.11, 12.71, 12.71, 12.71, 12.71, 12.83, 12.79, 12.9, 13.33, 12.96, 12.88, 12.9, 12.75, 11.44, 11.0, 11.91, 12.79, 12.79, 12.75, 12.02, 11.18, 9.83, 8.94, 9.35, 9.79, 9.24, 9.2, 9.8, 10.0, 10.27, 10.27, 9.7, 9.82, 8.53, 6.5, 5.7, 2.83, 2.69, 4.2, 5.21, 4.2, 3.11, 4.83, 7.68, 9.86, 10.91, 12.31, 13.15, 12.74, 12.9, 14.86, 20.03, 24.06, 21.85, 22.55, -10.0, 8.4, 7.44, 0.0, 12.96, 12.52, 0.0, 0.0, 12.07, 11.62, 12.07, 12.07, 12.07, 12.04, 12.04, 12.46, 12.46, 12.89, 13.11, 13.11, 13.55, 13.55, 13.99, 13.99, 13.99, 14.42, 14.37, 14.58, 14.58, 14.58, 14.58, 14.58, 14.58, 14.55, 15.02, 15.02, 15.02, 15.02, 15.02, 14.58, 14.16, 13.55, 13.55, 13.11, 12.68, 12.71, 12.27, 12.27, 12.39, 12.37, 12.31, 12.9, 12.88, 12.86, 12.88, 12.88, 12.01, 11.0, 11.88, 12.31, 12.47, 12.47, 11.57, 10.73, 9.83, 8.94, 9.39, 9.49, 9.13, 9.2, 9.96, 10.6, 10.46, 9.86, 9.7, 8.93, 8.53, 6.76, 5.7, 2.83, 2.83, 3.11, 4.6, 3.65, 3.65, 7.87, 9.33, 10.62, 10.84, 10.8, 10.23, 9.48, 8.66, 12.64, 18.84, 22.71, 21.89, 20.38, 0.0, -8.2, -11.16, -12.96, -11.45, -12.52, -12.52, -12.07, -11.62, -11.62, -12.07, -12.07, -12.07, 12.04, 12.04, 12.46, 12.46, 12.46, 13.11, 13.55, 13.55, 13.55, 13.55, 13.99, 13.99, 13.99, 14.6, 14.58, 14.58, 14.58, 14.58, 14.58, 14.14, 14.14, 14.58, 15.02, 15.02, 15.02, 15.02, 14.58, 14.16, 13.55, 13.55, 13.11, 13.11, 12.71, 12.27, 12.27, 11.8, 11.95, 12.37, 12.31, 12.27, 12.44, 12.42, 12.42, 12.0, 10.91, 11.84, 12.27, 12.45, 12.07, 11.18, 10.73, 10.28, 9.39, 8.94, 8.99, 9.13, 9.55, 9.55, 10.18, 9.86, 9.86, 8.93, 8.93, 8.53, 7.44, 7.59, 5.21, 2.97, 4.4, 6.95, 9.2, 8.18, 9.55, 9.75, 8.03, 5.95, 6.76, 6.7, 8.1, 8.91, 11.3, 16.58, 18.24, 21.03, 20.52, 25.03, -16.69, -12.79, -12.27, -10.8, -11.71, -11.62, -11.62, -11.18, -12.07, -12.52, -12.52, -12.52, 12.04, 12.04, 12.46, 12.46, 12.46, 12.82, 13.5, 13.55, 13.55, 13.99, 13.99, 13.99, 14.6, 14.6, 14.58, 14.58, 14.58, 14.58, 14.58, 14.58, 14.58, 14.55, 15.02, 15.02, 15.02, 14.58, 14.58, 14.14, 13.55, 13.11, 13.11, 13.11, 12.71, 12.27, 12.24, 11.8, 11.95, 11.93, 11.93, 12.35, 12.27, 12.22, 12.14, 11.78, 11.35, 12.22, 12.88, 12.52, 11.62, 10.73, 10.28, 9.83, 9.83, 9.39, 8.99, 9.13, 9.13, 9.85, 9.63, 9.86, 9.6, 8.93, 9.3, 9.27, 8.22, 6.44, 5.9, 2.97, 6.95, 8.4, 9.83, 6.95, 8.55, 3.98, 1.33, 2.33, 5.0, 5.64, 6.94, 8.61, 10.36, 12.24, 15.72, 18.46, 21.46, 23.38, -13.86, -12.58, -7.44, -9.17, -11.45, -12.07, -12.52, -12.96, -12.52, -12.96, -12.96, -12.96, 12.04, 12.04, 12.46, 12.46, 12.46, 12.82, 13.5, 13.5, 13.5, 13.94, 13.99, 13.99, 14.37, 14.37, 14.58, 14.58, 14.58, 14.58, 14.58, 14.58, 14.58, 14.58, 15.02, 14.81, 14.58, 14.58, 14.37, 13.94, 13.55, 13.55, 13.11, 13.11, 12.68, 12.27, 12.24, 11.8, 11.93, 11.93, 12.03, 11.93, 11.91, 11.64, 11.56, 11.56, 11.84, 12.45, 12.96, 12.52, 11.62, 10.73, 10.28, 9.83, 9.83, 8.77, 8.99, 8.72, 9.42, 9.42, 9.21, 9.45, 9.2, 8.55, 8.93, 9.67, 8.53, 8.22, 4.6, 6.95, 8.23, 8.18, 6.95, -0.0, -2.28, -1.45, -0.0, 1.39, 3.92, 5.2, 6.4, 9.17, 10.02, 10.02, 12.46, 17.44, 24.6, 10.4, -14.75, -6.94, 4.24, 9.8, 9.8, -13.41, -12.72, -13.86, -13.41, -9.17, -9.17, -9.17, 12.04, 12.04, 12.04, 12.46, 12.39, 12.63, 13.07, 13.5, 13.5, 13.94, 13.94, 14.37, 14.37, 14.37, 14.37, 14.37, 14.37, 14.37, 14.58, 14.58, 14.58, 14.58, 14.37, 14.37, 14.37, 14.37, 14.37, 13.94, 13.55, 13.55, 13.11, 13.11, 12.68, 12.71, 12.27, 11.8, 11.76, 11.49, 11.59, 11.49, 11.93, 11.93, 11.71, 11.28, 11.91, 12.47, 12.96, 12.52, 12.03, 11.13, 10.24, 9.83, 9.83, 8.77, 8.99, 8.99, 8.99, 9.33, 9.21, 9.04, 9.2, 9.2, 8.93, 9.3, 9.42, 7.26, 5.95, 7.27, 7.27, 5.06, 4.83, 2.28, -0.0, -3.65, -1.45, -0.0, 1.58, 3.19, 5.77, 8.15, 9.17, 9.69, 11.69, 16.6, 29.34, 22.35, -0.0, -8.53, 12.52, 14.3, 14.75, 12.79, -10.12, -6.2, -0.0, -0.0, -0.0, -0.0, 12.04, 12.04, 12.04, 12.39, 12.39, 12.63, 13.07, 13.5, 13.5, 13.94, 13.94, 14.37, 14.37, 14.37, 14.37, 14.37, 14.37, 14.37, 14.58, 14.58, 14.58, 14.37, 14.37, 14.37, 14.37, 14.37, 13.94, 13.94, 13.5, 13.07, 13.07, 12.68, 12.68, 12.71, 12.27, 11.8, 11.76, 11.49, 11.49, 11.49, 11.59, 11.49, 11.49, 11.49, 11.59, 11.62, 12.07, 12.03, 12.03, 11.14, 10.73, 10.28, 9.83, 9.21, 8.56, 8.63, 9.21, 8.91, 8.79, 9.04, 9.04, 9.45, 9.2, 10.0, 9.08, 7.54, 8.53, 7.9, 5.29, 4.4, 3.11, 1.69, -0.0, -1.76, -3.25, -0.0, -0.0, 1.84, 5.0, 7.44, 8.53, 9.88, 12.36, 24.69, 29.93, 20.72, 16.99, 0.0, 5.8, 10.82, 13.19, 13.99, -0.0, -0.0, 4.38, 7.69, 7.69, 7.69, 12.04, 12.04, 11.96, 11.96, 12.39, 12.63, 13.07, 13.07, 13.5, 13.5, 13.94, 13.94, 14.37, 14.37, 14.37, 14.37, 14.37, 14.37, 14.37, 14.81, 14.37, 14.37, 14.37, 14.37, 14.37, 13.94, 13.94, 13.94, 13.5, 13.07, 13.07, 12.68, 12.68, 12.27, 12.27, 11.8, 11.76, 11.33, 11.49, 11.05, 11.49, 11.59, 11.59, 11.59, 11.14, 11.18, 11.62, 11.62, 11.58, 11.18, 10.73, 10.28, 9.79, 9.64, 9.21, 8.8, 8.77, 8.73, 8.63, 8.63, 9.03, 9.46, 9.75, 9.6, 8.73, 8.22, 8.53, 5.75, 4.6, 3.65, 1.93, -0.0, -0.0, -1.76, -4.15, -1.76, -0.0, 1.84, 6.2, 6.7, 7.9, 9.88, 19.66, 22.9, 28.41, 16.45, -16.66, -4.38, 0.0, 2.72, 0.0, 14.75, -0.0, -0.0, 3.47, 5.31, 5.31, 5.31, 11.96, 11.96, 11.96, 11.96, 11.96, 12.63, 13.07, 13.5, 13.5, 13.5, 13.5, 13.94, 14.37, 14.37, 14.37, 14.37, 14.37, 14.37, 14.37, 14.81, 14.81, 14.37, 14.37, 14.37, 13.94, 13.94, 13.94, 13.5, 13.5, 13.07, 13.07, 12.63, 12.68, 12.24, 12.27, 11.8, 11.8, 11.33, 11.49, 11.05, 11.05, 11.59, 11.59, 11.14, 11.18, 10.73, 10.73, 10.73, 10.73, 10.73, 10.73, 10.28, 9.79, 9.64, 9.64, 9.21, 8.77, 8.67, 8.6, 9.03, 9.03, 9.03, 9.33, 8.82, 9.58, 8.22, 8.22, 5.75, 4.8, 2.39, -0.0, -2.02, -2.02, -2.6, -3.98, -6.17, -2.19, 1.84, 6.2, 7.15, 8.22, 9.66, 17.08, 23.41, 26.55, 13.4, -14.84, -13.15, -13.44, -14.3, -14.47, -8.18, -0.0, 3.58, 2.81, 5.31, 5.31, 5.31, 11.96, 11.96, 11.96, 11.96, 11.96, 12.2, 12.63, 13.07, 13.07, 13.07, 13.5, 13.94, 13.94, 14.37, 14.37, 14.37, 14.37, 14.37, 14.37, 14.81, 14.81, 14.81, 14.81, 14.37, 13.94, 13.94, 13.94, 13.5, 13.5, 13.07, 12.63, 12.63, 12.2, 12.24, 12.24, 11.8, 11.8, 11.33, 11.05, 11.02, 11.02, 11.14, 11.14, 11.14, 10.73, 10.73, 10.73, 10.73, 10.28, 10.28, 10.28, 10.28, 10.22, 9.79, 9.64, 9.21, 9.16, 8.67, 8.6, 8.85, 9.29, 9.29, 9.33, 9.55, 8.58, 8.94, 7.9, 6.71, 3.82, -0.0, -2.02, -2.49, -3.39, -3.53, -2.71, -4.6, -5.46, -0.0, 6.44, 7.59, 7.9, 11.72, 14.39, 22.32, 25.83, 29.35, 0.0, -12.96, -13.15, -12.65, -10.75, -5.64, -0.0, 2.98, 2.89, 5.31, 5.31, 5.31, 11.96, 11.96, 11.96, 11.96, 12.39, 12.63, 12.63, 12.63, 13.07, 13.07, 13.5, 13.94, 13.94, 14.37, 14.31, 14.37, 14.37, 14.37, 14.37, 14.37, 14.81, 14.81, 14.81, 14.37, 13.94, 13.94, 13.94, 13.5, 13.07, 13.07, 12.63, 12.2, 12.2, 12.2, 11.8, 11.8, 11.8, 11.33, 11.33, 11.02, 11.02, 11.14, 11.14, 11.14, 10.69, 10.73, 10.73, 10.28, 10.28, 10.28, 10.25, 10.28, 10.22, 9.79, 9.79, 9.79, 9.33, 8.87, 8.87, 8.87, 8.85, 9.29, 9.33, 9.55, 9.2, 9.6, 7.59, 6.44, 2.02, -0.0, -0.0, -3.39, -3.39, -3.53, -2.6, -2.49, -3.11, -3.11, 3.25, 7.59, 10.0, 11.3, 13.8, 18.41, 24.34, 30.43, 27.72, -11.7, -14.47, -7.82, -5.99, -4.81, -0.0, 5.81, 5.48, 4.66, 4.66, 4.66, 11.96, 11.96, 11.96, 11.96, 12.39, 12.39, 12.63, 13.07, 13.07, 13.07, 13.5, 13.5, 13.94, 14.31, 14.31, 14.31, 14.37, 14.37, 14.37, 14.81, 14.81, 14.81, 14.81, 14.37, 13.94, 13.94, 13.5, 13.5, 13.07, 12.63, 12.39, 11.96, 11.96, 11.76, 11.8, 11.8, 11.36, 11.33, 11.33, 11.02, 11.02, 11.14, 11.14, 10.69, 10.69, 10.69, 10.69, 10.28, 10.25, 10.25, 10.25, 9.83, 10.28, 9.79, 9.79, 9.79, 9.33, 9.32, 8.87, 8.49, 8.85, 8.85, 9.26, 9.64, 8.8, 8.8, 7.27, 4.6, 2.49, -0.0, -0.0, -4.8, -7.59, -7.9, -3.39, -0.0, -0.0, -0.0, -0.0, 9.6, 10.6, 11.28, 13.8, 16.99, 21.9, 24.59, 25.48, 21.81, 11.06, -3.79, -1.94, -3.69, -0.0, 4.3, 4.18, 6.6, 6.6, 6.6, 11.96, 11.96, 11.96, 11.87, 12.3, 12.3, 12.39, 12.82, 12.82, 12.82, 13.5, 13.5, 13.88, 13.88, 14.31, 13.88, 13.88, 14.37, 14.37, 14.37, 14.81, 14.81, 14.81, 14.81, 13.94, 13.5, 13.25, 13.25, 12.82, 12.39, 12.39, 11.96, 11.96, 11.76, 11.76, 11.8, 11.8, 11.33, 11.28, 10.84, 11.02, 11.02, 10.58, 10.58, 10.58, 10.69, 10.24, 10.24, 10.25, 10.25, 10.24, 9.83, 9.83, 9.83, 9.83, 9.39, 9.32, 9.39, 9.39, 8.94, 8.49, 8.38, 8.82, 8.77, 9.11, 7.81, 8.18, 6.95, 6.95, 4.4, -0.0, -7.59, -9.6, -9.2, -9.2, -7.27, -0.0, -0.0, 9.83, 10.18, 11.02, 11.53, 13.41, 16.54, 20.56, 22.35, 22.8, 21.01, 19.67, 14.79, -2.65, -3.79, -0.0, 3.9, 5.49, 7.76, 7.76, 7.76, 11.96, 11.96, 11.96, 11.87, 11.87, 12.3, 12.39, 12.39, 12.82, 12.82, 13.25, 13.44, 13.88, 13.88, 13.88, 13.88, 13.88, 13.88, 14.31, 14.31, 14.31, 14.75, 14.81, 14.37, 13.67, 13.25, 13.15, 12.72, 12.72, 12.39, 12.39, 11.96, 11.54, 11.76, 11.76, 11.8, 11.8, 11.33, 11.28, 11.28, 11.0, 11.02, 11.02, 10.58, 10.58, 10.56, 10.12, 10.12, 10.14, 10.14, 9.79, 9.83, 9.83, 9.83, 9.83, 9.39, 9.39, 8.94, 9.39, 8.94, 8.94, 8.49, 8.49, 8.94, 8.94, 8.91, 8.91, 8.4, 8.4, 4.4, -0.0, -0.0, -11.18, -11.18, -9.83, -10.28, -0.0, 7.27, 9.2, 10.41, 11.18, 12.07, 13.41, 16.05, 20.09, 21.81, 20.47, 19.98, 18.61, 18.63, 4.01, -4.54, -0.0, 2.34, 6.52, 9.09, 9.09, 9.09, 11.96, 11.96, 12.3, 12.3, 12.3, 12.3, 12.3, 12.39, 12.39, 12.82, 12.72, 13.44, 13.88, 13.88, 13.88, 13.88, 13.88, 13.88, 13.88, 14.31, 14.31, 14.31, 14.31, 14.1, 13.57, 13.15, 13.15, 12.72, 12.72, 12.3, 12.63, 12.2, 11.76, 11.76, 11.76, 11.33, 11.36, 11.33, 11.33, 10.84, 11.0, 11.0, 11.02, 10.58, 10.41, 10.56, 10.56, 10.12, 10.14, 10.12, 9.79, 9.83, 9.83, 9.83, 9.39, 9.39, 9.39, 8.94, 8.94, 8.94, 8.94, 8.49, 8.49, 8.49, 8.94, 8.94, 8.94, 9.39, 9.39, 6.64, -0.0, -0.0, -0.0, -11.62, -10.28, -7.27, -0.0, 7.27, 8.55, 9.6, 10.6, 11.53, 12.91, 15.15, 19.09, 20.64, 20.05, 19.68, 19.33, 18.47, 15.19, -0.0, -3.33, 3.33, 8.51, 11.06, 11.06, 11.06, 11.96, 11.96, 12.3, 12.3, 12.3, 12.3, 12.3, 12.39, 12.39, 12.82, 12.72, 13.44, 13.88, 13.88, 13.88, 13.88, 13.88, 13.88, 13.88, 14.31, 14.31, 14.31, 14.31, 14.1, 13.57, 13.15, 13.15, 12.72, 12.72, 12.3, 12.63, 12.2, 11.76, 11.76, 11.76, 11.33, 11.36, 11.33, 11.33, 10.84, 11.0, 11.0, 11.02, 10.58, 10.41, 10.56, 10.56, 10.12, 10.14, 10.12, 9.79, 9.83, 9.83, 9.83, 9.39, 9.39, 9.39, 8.94, 8.94, 8.94, 8.94, 8.49, 8.49, 8.49, 8.94, 8.94, 8.94, 9.39, 9.39, 6.64, -0.0, -0.0, -0.0, -11.62, -10.28, -7.27, 7.27, 7.27, 8.55, 9.6, 10.6, 10.84, 11.84, 14.11, 16.66, 19.25, 19.84, 19.08, 19.18, 18.24, 16.96, 12.33, -0.0, 5.65, 13.76, 13.99, 13.99, 13.99]}, {"header": {"dx": 0.06612293990616946, "dy": 0.0552356325346848, "nx": 98, "ny": 59, "la1": 35.046912555036876, "la2": 31.78801023549047, "lo1": -121.43107172385933, "lo2": -114.95102361305473, "refTime": "2026041211", "parameterCategory": 1, "parameterNumber": 3}, "data": [-2.09, -2.09, -2.24, -2.24, -2.24, -2.24, -2.24, -2.09, -1.95, -2.72, -2.55, -2.14, -3.29, -2.19, 1.69, 8.58, 10.41, 8.93, 7.59, 5.95, 5.0, 8.22, 8.38, 7.59, 7.59, 7.9, 6.44, 8.58, 9.58, 10.38, 10.6, 11.02, 10.73, 8.49, -0.0, 0.0, 0.0, 0.0, 0.0, 7.2, 8.49, 9.64, 11.03, 10.79, 8.58, 7.0, 7.08, 6.97, 6.81, 7.2, 6.3, 7.78, 7.78, 8.54, 9.13, 8.23, 8.23, 7.69, 6.9, 6.9, 6.0, 6.65, 9.17, 11.6, 11.12, 10.3, 9.02, 6.73, 6.6, 5.35, 5.35, 5.04, 3.53, 2.37, 1.55, 3.04, 2.45, 0.0, -0.0, -3.04, -3.82, -4.8, -6.44, -6.17, -7.27, -8.03, -9.6, -10.84, -11.62, -10.35, -8.53, -8.85, -8.24, -7.96, -7.54, -10.79, -12.96, -13.41, -2.02, -2.09, -2.24, -2.24, -2.24, -2.24, -2.31, -2.15, -1.95, -1.83, -2.47, -2.32, -2.28, -1.18, 2.82, 9.3, 9.75, 8.22, 8.93, 7.27, 9.66, 10.35, 10.35, 9.3, 7.59, 6.44, 7.27, 8.55, 10.41, 11.02, 11.53, 11.98, 11.46, 7.6, -0.0, 0.0, 0.0, 0.0, 0.0, 6.32, 9.64, 11.4, 11.6, 8.94, 6.52, 5.65, 5.65, 5.4, 5.37, 4.71, 6.43, 7.54, 7.54, 7.19, 8.05, 8.31, 7.44, 6.9, 6.42, 5.55, 5.45, 8.1, 11.6, 12.04, 10.79, 9.17, 7.11, 5.63, 6.17, 5.98, 6.14, 4.62, 4.52, 2.81, 1.83, 1.83, 3.44, 0.0, -0.0, -3.04, -3.82, -4.8, -6.44, -6.17, -7.27, -8.03, -9.6, -10.84, -11.62, -10.35, -8.53, -8.85, -8.24, -7.96, -7.54, -10.79, -12.96, -13.41, -2.02, -2.09, -2.09, -3.32, -3.32, -3.58, -2.31, -2.15, -2.01, -2.64, -2.31, -1.89, -2.08, -1.28, 2.1, 8.93, 10.6, 9.3, 10.0, 11.2, 10.0, 10.4, 9.3, 9.42, 8.85, 7.27, 6.95, 8.18, 9.83, 10.73, 12.07, 12.45, 11.88, 8.77, 6.71, 8.49, 5.69, 0.0, 0.0, 8.55, 11.46, 13.15, 10.05, 7.04, 4.77, 4.36, 4.36, 2.02, 3.25, 4.1, 6.67, 7.44, 6.43, 6.43, 6.63, 6.0, 6.51, 6.0, 5.55, 4.98, 6.65, 11.12, 12.3, 11.6, 9.96, 7.54, 6.87, 6.73, 8.43, 8.28, 8.51, 8.74, 7.0, 4.24, 1.83, 1.77, 1.55, 4.52, -0.0, -2.63, -2.28, -4.32, -5.0, -6.17, -6.42, -6.42, -7.27, -10.84, -11.84, -9.82, -10.43, -10.12, -9.48, -8.38, -5.8, 0.0, 0.0, -6.0, -2.02, -2.02, -2.09, -3.32, -3.32, -3.58, -3.42, -3.18, -2.89, -2.55, -2.22, -1.98, -2.37, -1.11, 1.84, 9.3, 11.62, 12.07, 12.07, 10.96, 10.38, 10.18, 9.3, 7.26, 7.59, 7.9, 7.27, 6.95, 9.39, 9.2, 10.6, 11.55, 11.62, 10.41, 8.05, 7.81, 6.95, 5.0, 2.82, 11.99, 15.27, 16.1, 12.01, 7.22, 2.47, 0.0, 0.0, 0.0, 2.45, 2.54, 4.65, 4.1, 5.8, 6.21, 6.21, 5.8, 5.8, 4.98, 4.98, 4.24, 9.17, 12.79, 11.87, 10.79, 9.17, 8.44, 8.54, 9.48, 10.87, 11.06, 12.01, 11.73, 10.19, 7.21, 3.82, 0.0, -1.98, 0.0, -11.06, -4.24, -3.19, -3.82, -4.32, -4.15, -3.53, -4.32, -8.22, -11.84, -11.87, -11.09, -10.3, -9.44, -9.48, 0.0, 12.96, 11.6, 0.0, -4.24, -2.02, -2.02, -2.09, -2.24, -2.24, -3.58, -3.42, -3.18, -2.89, -2.55, -2.22, -1.98, -2.28, -1.23, 0.0, 9.67, 11.62, 12.07, 12.07, 12.07, 12.14, 9.3, 7.59, 8.22, 6.44, 6.71, 7.9, 8.94, 10.6, 8.8, 7.27, 8.23, 11.03, 11.51, 8.73, 7.9, 7.9, 4.1, 3.07, 17.78, 18.96, 14.51, 10.75, 8.59, 5.8, 4.48, 2.93, 0.0, 3.04, 3.14, 5.8, 4.81, 5.6, 5.6, 6.21, 5.8, 5.27, 5.45, 3.85, 5.28, 11.6, 12.96, 12.72, 11.53, 11.09, 11.35, 10.85, 11.16, 11.03, 11.95, 12.48, 13.04, 12.8, 12.02, 7.13, 2.19, -12.52, -0.0, -0.0, -5.46, -3.68, -3.32, -4.32, -2.28, -3.19, -6.21, -11.2, -12.71, -11.64, -12.52, -10.75, -7.69, 12.96, 12.96, 12.96, 5.8, 0.0, -3.25, -2.02, -2.02, -2.02, -2.24, -2.24, -2.24, -2.31, -3.09, -2.89, -2.55, -2.22, -2.02, -2.19, -1.18, 0.0, 9.3, 11.62, 12.07, 11.71, 12.14, 12.52, 11.21, 11.16, 9.17, 8.53, 8.53, 8.22, 8.73, 8.94, 10.84, 9.11, 5.21, 6.95, 12.07, 8.05, 7.44, 6.43, 4.87, 4.23, 18.78, 16.09, 13.28, 10.01, 9.42, 8.85, 8.01, 7.51, 5.6, 3.96, 6.94, 7.24, 6.44, 5.6, 5.6, 5.11, 4.1, 4.1, 2.81, 2.91, 6.9, 12.71, 12.52, 12.72, 12.79, 13.59, 13.78, 12.56, 11.16, 10.73, 10.65, 10.27, 10.87, 11.73, 11.45, 9.84, 10.02, -0.0, -0.0, -0.0, -2.37, -3.32, -4.75, -3.82, -3.68, -5.98, -10.35, -12.52, -12.79, -12.73, -12.65, -11.9, 0.0, 13.41, 8.85, 0.0, 0.0, -4.98, -6.0, -2.02, -2.02, -2.02, -2.24, -2.24, -2.24, -2.24, -2.09, -2.81, -2.55, -1.5, -1.3, -1.07, -1.18, 0.0, 7.9, 12.07, 12.52, 11.87, 10.41, 9.17, 12.79, 13.19, 8.68, 8.43, 8.18, 8.43, 12.79, 11.6, 9.6, 9.6, 9.39, 9.83, 8.8, 8.22, 9.8, 8.94, 6.2, 6.2, 13.41, 13.57, 12.58, 11.5, 11.16, 11.33, 9.17, 9.17, 9.62, 8.53, 8.85, 9.77, 7.54, 5.6, 3.44, 1.77, 1.61, 0.0, 0.0, 0.0, 9.17, 12.52, 12.52, 13.15, 13.48, 14.53, 13.95, 13.01, 11.36, 10.12, 8.2, 6.6, 6.29, 6.66, 6.53, 6.1, 7.03, 10.43, -0.0, -0.0, -0.0, -3.82, -5.2, -7.26, -6.71, -8.94, -11.91, -14.11, -13.99, -13.02, -13.44, -12.52, -0.0, -0.0, -0.0, 0.0, -7.19, -6.9, -8.05, -1.96, -2.02, -2.02, -2.18, -2.24, -2.24, -2.24, -2.09, -1.89, -1.66, -1.39, -1.3, -1.02, -1.23, 0.0, 5.0, 12.07, 12.96, 12.96, 11.99, 6.0, -0.0, -13.41, 0.0, 0.0, 0.0, 11.06, 15.27, 14.31, 10.73, 10.8, 11.71, 11.87, 11.87, 7.9, 8.85, 5.8, 4.4, 5.2, 8.22, 12.3, 13.86, 13.39, 12.01, 10.05, 10.12, 10.41, 11.16, 11.77, 11.64, 8.22, 7.24, 3.96, 1.77, 0.0, -1.77, -1.77, -3.04, 0.0, 12.52, 12.96, 12.58, 13.59, 13.39, 13.59, 12.87, 10.69, 7.6, 3.69, 1.47, 0.0, 0.0, 0.0, 0.0, 0.0, 1.26, 3.58, 9.8, 3.96, -0.0, -8.68, -7.54, -7.9, -9.97, -11.21, -13.41, -14.03, -13.19, -13.44, -10.8, -0.0, 5.6, 4.24, -0.0, -11.99, -8.05, -8.38, -9.48, -1.96, -2.02, -2.02, -3.22, -3.32, -3.32, -3.32, -2.09, -1.89, -1.61, -1.44, -2.44, -1.83, -1.43, 0.0, 3.96, 12.96, 13.41, 13.41, 13.41, 13.41, 0.0, -0.0, -14.3, -12.96, 0.0, 0.0, 13.86, 14.84, 11.9, 13.15, 15.2, 15.2, 12.39, 10.41, 6.45, 0.0, 0.0, 2.49, 5.7, 9.17, 13.19, 10.43, 5.6, 5.98, 9.48, 11.72, 12.66, 12.36, 11.21, 10.3, 7.54, 6.21, 2.37, 0.0, -3.68, -5.98, -6.45, -11.62, 13.41, 13.44, 12.89, 12.3, 12.74, 12.42, 10.75, 9.17, 4.62, -1.94, -4.66, -5.18, -4.66, -4.81, -4.24, -4.11, -2.02, 0.0, 2.43, 3.36, 0.0, 0.0, -8.58, -7.59, -9.3, -11.28, -12.07, -11.6, 0.0, 0.0, 0.0, 12.07, 12.52, 3.96, -9.8, -12.39, -8.66, -9.8, -9.48, -1.96, -1.96, -3.22, -3.22, -3.32, -3.32, -3.32, -3.09, -2.81, -2.39, -2.31, -2.54, -2.37, -2.47, -1.25, 1.9, 10.12, 14.75, 14.75, 9.48, 5.8, 9.17, 13.86, 14.3, 0.0, 8.22, 9.39, 10.73, 13.99, 13.57, 14.75, -0.0, -0.0, 0.0, 0.0, 5.0, 0.0, 4.2, 8.22, 10.79, 10.79, 9.17, 6.97, 5.29, 8.03, 10.91, 11.03, 10.55, 9.76, 10.02, 10.62, 11.77, 11.72, 11.26, 8.53, 5.2, 5.2, -11.62, -11.62, 13.41, 14.03, 13.94, 14.4, 12.87, 12.5, 10.75, 9.88, 7.4, 0.0, -9.8, -11.28, -9.48, -7.58, -6.6, -5.63, -3.47, 0.0, 0.0, 0.0, 3.69, 4.23, 6.14, -13.41, -7.59, 0.0, 3.11, 4.6, 2.49, 3.53, 0.0, 0.0, 10.8, 12.96, -13.41, -12.39, -9.8, -9.8, -9.48, -1.96, -2.9, -3.22, -3.32, -3.32, -3.32, -3.32, -3.09, -2.81, -2.47, -2.39, -2.55, -3.36, -3.36, -2.56, 0.0, 7.0, 11.06, 4.95, 4.12, 5.51, 9.67, 14.13, 10.43, 6.6, 9.17, 7.27, 9.2, 11.6, 12.39, 12.96, 0.0, -0.0, -0.0, 0.0, 5.4, 8.22, 10.4, 10.04, 11.09, 11.9, 9.48, 5.2, 7.9, 10.52, 10.2, 9.6, 8.73, 8.73, 10.0, 12.46, 13.92, 14.36, 14.97, 14.5, 14.94, 14.69, 12.72, -5.4, 12.79, 13.83, 14.5, 13.75, 13.77, 13.8, 13.59, 13.97, 14.67, 13.58, 4.1, -10.41, -10.12, -10.99, -10.12, -8.31, -6.2, -0.0, 0.0, 0.0, 0.0, 3.69, 8.28, 7.54, 4.81, 3.68, 4.8, 4.6, 2.1, 0.0, 0.0, 0.0, 0.0, 0.0, -9.17, -11.16, -10.73, -11.16, -12.96, -1.96, -2.9, -3.22, -3.32, -3.32, -3.32, -3.32, -3.09, -2.81, -2.47, -2.47, -3.36, -3.58, -3.47, -3.07, -1.65, 1.38, 6.6, 5.09, 3.33, 3.24, 3.16, 3.79, 0.0, 0.0, 0.0, 3.96, 2.99, 3.53, 7.27, 0.0, 0.0, 0.0, 0.0, 0.0, 7.27, 8.55, 10.04, 10.41, 10.73, 11.09, 9.48, 10.04, 10.6, 10.28, 9.21, 10.41, 10.52, 11.02, 11.18, 12.04, 12.94, 14.29, 16.07, 16.07, 16.36, 15.61, 12.65, 11.12, 12.91, 14.3, 14.31, 14.18, 14.1, 14.31, 15.56, 17.19, 17.56, 17.9, 16.6, 13.2, 10.12, 0.0, -10.79, -12.3, -13.86, 0.0, 0.0, 0.0, -9.48, 0.0, 6.0, 5.6, 5.81, 5.6, 5.8, 4.08, 3.25, 2.1, 0.0, 0.0, -0.0, 0.0, 0.0, -11.2, -11.87, -12.52, -11.2, -2.9, -3.12, -3.22, -3.32, -3.32, -3.32, -3.32, -4.21, -3.69, -3.36, -3.36, -3.47, -3.58, -3.69, -3.58, -2.8, 0.0, 4.24, 3.14, 0.0, 0.0, 0.0, 0.0, 0.0, 0.0, 0.0, 1.48, 1.48, 1.71, 1.62, 0.0, 0.0, 5.2, 7.9, 7.27, 6.95, 7.27, 10.0, 11.03, 10.8, 11.2, 11.62, 11.71, 10.28, 9.83, 9.83, 10.28, 10.73, 11.18, 11.18, 10.73, 11.18, 12.04, 12.48, 14.3, 15.55, 14.13, 12.65, 8.6, 11.58, 13.86, 12.96, 13.15, 13.28, 13.83, 15.56, 18.6, 20.64, 21.18, 22.66, 18.31, 14.42, 11.3, 8.85, 0.0, -9.8, 0.0, 6.4, 4.24, -8.85, -11.62, 0.0, 0.0, 0.0, 5.8, 6.4, 4.52, 3.04, 1.76, 2.1, 0.0, -0.0, -0.0, -8.22, -11.45, -10.8, -10.04, -3.82, -2.9, -3.12, -3.12, -3.22, -3.32, -3.22, -4.21, -4.21, -3.93, -3.69, -3.47, -3.47, -3.58, -2.8, -3.9, -2.97, 0.0, 1.89, 2.89, 0.0, 0.0, 0.0, 0.0, 0.0, 0.0, 0.0, 0.0, 1.42, 1.53, 0.0, 0.0, 0.0, 0.0, 7.59, 7.27, 6.95, 8.4, 9.75, 9.75, 10.18, 11.28, 10.84, 11.18, 11.18, 9.83, 9.54, 8.38, 9.64, 10.52, 10.73, 10.73, 10.58, 13.15, 13.44, 12.3, 12.07, 11.71, 9.31, 10.12, 11.0, 12.96, 13.09, 13.34, 13.86, 13.41, 14.72, 16.43, 17.57, 18.06, 15.83, 17.01, 11.7, 9.44, 6.92, 3.68, 0.0, 9.39, 10.75, 8.85, 6.6, 0.0, -5.6, -2.45, -3.93, 1.77, 2.91, 2.56, 2.72, 2.71, 2.95, 2.39, 0.0, -0.0, -3.68, -7.59, -8.22, -6.45, -0.0, -3.12, -3.12, -3.12, -3.22, -3.22, -3.22, -3.22, -4.21, -3.93, -3.69, -3.47, -3.58, -3.58, -2.8, -3.9, -4.01, -2.34, 0.0, 0.0, 0.0, 0.0, 0.0, 0.0, 0.0, 0.0, 0.0, 0.0, 0.0, 0.0, 0.0, 0.0, 0.0, 0.0, 0.0, 7.27, 6.95, 9.2, 8.4, 10.0, 9.2, 10.18, 11.62, 10.73, 10.73, 9.39, 9.39, 8.91, 8.4, 8.0, 9.33, 10.28, 10.28, 9.33, 6.01, 0.0, 0.0, 9.83, 6.24, 8.85, 12.14, 11.62, 11.53, 12.07, 12.07, 12.07, 12.88, 13.77, 12.89, 11.99, 11.68, 11.7, 9.69, 4.34, 1.25, 2.02, 11.06, 12.7, 11.06, 9.91, 8.68, 6.17, 2.28, 0.0, -5.6, -10.35, -4.38, 0.0, 1.33, 2.37, 2.93, 3.53, 0.0, -5.0, -5.0, -6.2, -3.68, -0.0, -0.0, -3.12, -3.12, -3.12, -3.22, -3.22, -3.22, -3.22, -4.21, -3.93, -2.81, -2.72, -2.72, -2.72, -2.8, -2.88, -3.9, -3.24, 0.0, 0.0, 0.0, 0.0, 0.0, 0.0, 0.0, 0.0, 0.0, 0.0, 0.0, 0.0, 0.0, 0.0, 0.0, 0.0, 0.0, 0.0, 4.0, 6.95, 6.95, 7.9, 7.59, 9.2, 10.73, 10.73, 9.83, 9.39, 8.4, 8.91, 7.44, 6.32, 6.01, 8.0, 8.94, 8.94, 8.94, 0.0, 0.0, 6.01, 6.95, 10.4, 11.03, 10.2, 10.73, 10.73, 10.58, 10.28, 11.18, 10.28, 12.3, 12.39, 10.12, 6.4, 1.21, 0.0, -3.59, 6.31, 13.42, 12.86, 10.75, 9.39, 9.09, 8.7, 7.63, 6.1, 2.54, -11.03, -11.18, -6.67, -2.2, 0.0, 0.0, 1.55, -10.73, -5.0, -7.9, -10.73, -7.59, -0.0, -0.0, -3.12, -3.12, -3.22, -3.12, -3.12, -3.22, -3.22, -4.34, -3.93, -2.81, -2.89, -2.72, -2.8, -2.8, -2.88, -3.79, -2.88, -1.5, 0.0, 0.0, -2.72, 0.0, 0.0, 0.0, 0.0, 0.0, 0.0, 0.0, 0.0, 0.0, 0.0, 0.0, 0.0, 0.0, 0.0, 2.17, 2.97, 4.8, 7.27, 7.27, 10.73, 8.94, 9.83, 8.49, 9.39, 8.4, 8.4, 8.4, 6.32, 6.32, -0.0, 9.39, 9.39, 9.39, 9.39, 6.64, 8.8, 9.75, 9.3, 10.4, 10.0, 10.28, 9.54, 8.18, 8.8, 8.48, 10.28, 12.52, 11.12, 6.43, 1.38, -3.28, -4.55, 0.0, 15.14, 14.29, 12.56, 10.89, 9.17, 8.06, 8.43, 8.05, 6.24, 5.46, 0.0, -9.67, -11.4, -5.8, -3.25, 0.0, 0.0, 0.0, -5.0, -10.4, -8.22, -7.59, 0.0, 0.0, -3.12, -3.12, -3.22, -3.22, -3.12, -3.12, -3.22, -3.22, -4.05, -3.09, -2.89, -2.8, -3.69, -2.8, -2.8, -2.8, -2.88, -1.34, 0.0, 0.0, -2.65, -4.42, -1.94, 0.0, 0.0, 0.0, 0.0, 0.0, 0.0, 0.0, 0.0, 0.0, 0.0, 0.0, 0.0, 0.0, 0.0, 0.0, 4.8, 7.27, 9.83, 9.39, 8.49, 8.94, 8.94, 9.39, 9.39, 9.39, 9.39, 9.39, 0.0, 0.0, 0.0, 9.83, 9.83, 9.83, 8.8, 9.2, 7.59, 7.9, 9.3, 10.18, 10.28, 9.33, 7.51, 7.33, 8.82, 11.62, 7.59, 1.58, 0.0, 0.0, 0.0, 8.0, 12.45, 12.01, 9.92, 8.0, 8.04, 6.35, 5.91, 5.02, 4.13, 1.97, 0.0, -5.8, -5.8, -12.96, -11.99, -4.38, 2.63, 3.96, 1.91, -2.28, -5.2, -2.71, 0.0, 0.0, -3.12, -3.12, -3.12, -3.22, -3.12, -3.12, -3.22, -3.22, -4.05, -3.09, -2.89, -2.8, -3.79, -2.88, -2.8, -3.04, -2.89, -1.2, 0.0, -2.98, -2.57, -6.34, -6.16, -3.24, 0.0, 0.0, 0.0, 0.0, 0.0, 0.0, 0.0, 0.0, 0.0, 0.0, 0.0, 0.0, 0.0, 0.0, 0.0, 0.0, 0.0, 0.0, 0.0, 9.83, 9.83, 9.83, 9.83, 9.39, 9.39, 9.39, 9.83, 9.83, 9.83, 9.83, 9.83, 10.28, 8.8, 9.6, 7.9, 7.9, 9.6, 9.6, 10.28, 8.48, 7.51, 7.27, 8.55, 10.73, 0.0, 0.0, 0.0, 3.89, 5.98, 5.1, 2.79, 0.0, -1.15, 0.0, 0.97, 1.97, 1.67, 0.84, 0.0, 0.0, 0.0, -4.1, 0.0, 10.4, 0.0, 0.0, 4.38, 4.24, 1.98, 0.0, -2.37, -2.28, 0.0, 0.0, -3.12, -3.12, -3.36, -3.36, -3.36, -3.12, -3.22, -3.22, -3.32, -4.05, -2.89, -2.98, -3.79, -2.88, -2.88, -2.8, -2.72, -0.92, 0.0, 0.0, -4.12, -4.42, -6.34, -5.51, -3.24, 0.0, 0.0, 0.0, 0.0, 0.0, 0.0, 0.0, 0.0, 0.0, 0.0, 0.0, 0.0, 0.0, 0.0, 0.0, 0.0, 0.0, 0.0, 0.0, 8.94, 10.73, 9.83, 9.83, 9.39, 9.39, 9.39, 9.39, 9.39, 9.83, 8.94, 9.39, 9.6, 6.95, 7.27, 4.8, 7.27, 10.28, 9.83, 9.33, 8.4, 7.87, 8.55, 10.73, 2.49, 0.0, 1.11, 1.88, 3.38, 0.0, -5.03, -8.74, -9.94, -9.35, -4.03, -1.89, -0.89, 0.0, 0.0, 0.0, 0.0, 0.0, 4.8, 9.6, 8.22, 5.2, 0.0, 0.0, 0.0, 0.0, -2.37, 0.0, 0.0, 0.0, -3.12, -3.36, -3.36, -3.36, -3.36, -3.12, -3.12, -3.22, -3.32, -4.18, -4.05, -2.98, -2.88, -2.88, -2.88, -2.88, -1.72, -1.72, 0.0, 0.0, 0.0, -5.23, -6.52, -7.98, -4.67, -2.4, 0.0, 0.0, 0.0, 0.0, 0.0, 0.0, 0.0, 0.0, 0.0, 0.0, 0.0, 0.0, 0.0, 0.0, 0.0, 0.0, 0.0, 0.0, 6.64, 10.73, 9.83, 0.0, 9.39, 6.64, 8.0, 9.39, 9.39, 9.83, 10.28, 9.83, 8.55, 7.27, 4.8, 9.83, 9.83, 9.83, 9.83, 9.33, 7.81, 7.27, 10.04, 11.62, 7.9, 4.58, 3.73, 4.81, 6.79, 1.26, -7.4, -12.48, -13.88, -13.36, -11.38, -7.42, -4.03, -0.98, 0.0, 0.95, 1.21, 0.0, 5.4, 6.71, 3.19, 3.53, -1.98, -4.1, -3.04, -1.91, 0.0, 2.93, 2.28, 2.28, -4.08, -4.38, -4.38, -3.36, -3.36, -3.12, -3.12, -3.22, -3.32, -3.18, -3.18, -2.98, -2.98, -2.88, -2.88, -1.94, -1.89, -1.72, -0.87, 0.0, 0.0, -2.05, -6.34, -6.34, -4.67, -2.53, 0.0, 0.0, 0.0, 0.0, 0.0, 0.0, 0.0, 2.16, 2.11, 0.0, 0.0, 0.0, 0.0, 0.0, 0.0, 0.0, 0.0, 0.0, 2.17, 3.6, 0.0, 0.0, 0.0, 8.94, 8.0, 9.39, 8.94, 9.39, 9.83, 10.28, 10.41, 9.6, 9.6, 6.95, 7.44, 9.97, 9.83, 9.39, 9.54, 10.8, 10.41, 11.62, 11.03, 10.73, 10.3, 11.64, 15.88, 13.46, -12.07, -13.47, -16.18, -16.2, -15.2, -12.4, -8.94, -4.47, 0.0, 1.2, 2.31, 2.81, 4.38, 2.2, 0.0, 0.0, -2.52, -4.75, -1.77, 0.0, 5.2, 5.2, 1.91, 1.91, -4.38, -4.38, -4.38, -4.38, -3.36, -3.12, -3.22, -3.22, -3.32, -3.18, -3.18, -3.18, -3.07, -3.07, -2.88, -1.94, -1.89, -1.72, -0.89, 0.0, 0.0, -1.34, -3.69, -4.18, -4.54, -2.47, 0.0, 0.0, 0.0, 0.0, 0.0, 0.0, 0.0, 0.0, 0.0, 0.0, 0.0, 0.0, 0.0, 0.0, 0.0, 0.0, 0.0, 1.47, 1.58, 1.95, 0.0, 0.0, 0.0, 8.49, 8.94, 8.94, 8.94, 8.94, 9.39, 9.83, 9.97, 10.38, 10.0, 8.0, 6.64, 9.2, 10.28, 9.83, 9.54, 12.14, 12.3, 10.6, 10.96, 11.18, 12.35, 12.56, 10.0, 6.31, -9.3, -9.77, -13.88, -15.36, -16.32, -16.19, -13.13, -8.18, -4.5, 0.0, 0.0, 2.5, 1.47, 0.0, -1.42, 0.0, -1.55, 0.0, 0.0, 4.48, 4.32, 3.68, 1.44, 1.44, -4.38, -4.38, -4.38, -4.38, -4.38, -4.08, -4.08, -4.21, -3.32, -3.18, -3.18, -3.28, -3.07, -3.07, -3.07, -1.94, -1.94, -0.92, -0.92, -0.95, 0.0, 0.0, -1.23, -3.58, -2.5, -2.72, 0.0, 0.0, 0.0, 0.0, 0.0, 0.0, 0.0, 0.0, 0.0, 0.0, 0.0, 0.0, 0.0, 0.0, 0.0, 0.0, 0.0, 1.45, 2.46, 2.54, 0.0, 0.0, 0.0, 6.32, 8.0, 8.49, 8.49, 8.94, 8.94, 9.39, 8.49, 9.26, 10.0, 10.73, 7.07, 7.44, 9.11, 9.11, 9.54, 13.86, 12.96, 12.96, 10.41, 9.33, 10.28, 1.63, 2.36, 5.42, 6.08, -15.19, -15.2, -13.44, -14.13, -15.12, -15.16, -12.27, -9.13, -4.89, -2.56, -1.3, 0.0, 0.0, 0.0, 7.93, 4.1, 6.21, 4.48, 1.98, 0.0, 0.0, 0.0, 0.0, -4.38, -4.38, -4.38, -4.38, -4.38, -4.38, -4.08, -4.21, -4.34, -3.18, -3.18, -3.18, -3.28, -3.07, -3.07, -2.07, -2.07, -1.89, -0.95, -0.95, 0.0, 0.0, 0.0, 0.0, -1.73, -2.57, 0.0, 0.0, 0.0, 0.0, 0.0, 0.0, 0.0, 0.0, 0.0, 0.0, 0.0, 0.0, 0.0, 0.0, 0.0, 0.0, 0.0, 1.28, 2.39, 2.58, 2.33, 1.05, 0.0, 2.58, 4.6, 9.2, 7.6, 8.94, 8.94, 8.94, 8.94, 7.6, 8.67, 8.8, 9.33, 8.06, 7.44, 9.11, 11.18, 13.86, 12.52, 12.14, 10.84, 0.0, 0.0, 0.0, 3.09, 9.46, 8.8, 7.22, -3.16, -16.12, -14.31, -11.71, -14.47, -14.53, -12.45, -9.33, -5.45, -3.14, -1.61, 0.0, 4.24, 10.12, 9.12, 6.9, 3.6, 0.0, -1.64, -1.84, 0.0, 0.0, -4.08, -4.08, -4.38, -4.38, -4.38, -4.38, -4.08, -4.21, -4.34, -3.32, -3.18, -3.18, -3.28, -3.07, -3.07, -2.07, -2.07, -2.07, -1.04, -0.98, 0.0, 0.0, 0.0, 0.0, 0.0, 0.0, 0.0, 0.0, 0.0, 0.0, 0.0, 0.0, 0.0, 0.0, 0.0, 0.0, 0.0, 0.0, 0.0, 0.0, 0.0, 0.0, 1.09, 1.09, 1.14, 2.49, 2.39, 1.94, 0.99, 2.04, 3.7, 5.86, 6.95, 9.33, 8.48, 8.94, 8.49, 8.05, 8.94, 7.44, 8.8, 9.97, 8.94, 9.39, 10.28, 12.52, 12.07, 12.14, 7.59, 1.69, 0.0, 0.0, 4.34, 8.0, 12.28, 11.09, 8.99, -5.94, -15.93, -12.44, -13.36, -15.02, -14.28, -10.86, -7.19, -4.38, -1.9, 0.0, 4.24, 7.13, 4.81, 5.81, 3.25, 0.99, 0.0, 0.0, 0.0, 0.0, -4.08, -4.08, -4.08, -4.38, -4.38, -4.08, -4.08, -4.08, -4.21, -4.34, -3.18, -3.18, -3.28, -3.18, -3.07, -2.07, -2.07, -2.07, -2.07, -1.04, -0.98, 0.0, 0.0, 0.0, 0.0, 0.0, 0.0, 0.0, 0.0, 0.0, 0.0, 0.0, 0.0, -1.3, -1.37, -1.5, -1.83, 0.0, 0.0, 0.0, 0.0, 0.0, 0.0, 1.09, 1.14, 1.28, 1.28, 2.04, 1.94, 1.75, 2.28, 3.87, 6.14, 8.43, 8.8, 8.24, 8.49, 8.05, 7.6, 8.24, 9.11, 8.4, 8.93, 8.0, 10.73, 10.28, 11.62, 8.93, 6.42, 4.05, 2.71, 2.28, 2.28, 5.51, 8.24, 11.92, 10.34, 7.22, -16.09, -11.62, -12.52, -14.68, -14.03, -12.46, -10.41, -7.44, -3.93, -2.02, 0.0, 2.72, 0.0, 0.0, 3.09, 3.12, 1.61, 1.91, 2.19, 2.19, -4.08, -4.08, -4.08, -4.08, -4.08, -4.08, -4.08, -4.08, -4.21, -4.21, -3.32, -3.18, -3.18, -3.18, -3.18, -2.01, -2.07, -2.07, -2.07, -2.07, -1.04, -0.98, 0.0, 0.0, 0.0, 0.0, 0.0, 0.0, 0.0, 0.0, 0.0, 0.0, 0.0, -1.3, -1.3, -1.37, -1.5, 0.0, 0.0, 0.0, 0.0, 0.0, 0.0, 0.0, 0.0, 1.22, 1.28, 1.22, 1.04, 0.93, 1.04, 2.39, 4.6, 7.27, 9.6, 8.8, 8.48, 7.6, 8.05, 8.94, 8.3, 6.32, 5.9, 7.81, 9.39, 11.18, 10.0, 0.0, 0.0, 1.69, 1.23, 0.0, 0.0, 0.0, 2.45, 3.38, 2.47, 5.14, 2.65, -12.96, -10.41, -13.44, -14.42, -13.28, -11.61, -10.41, -9.48, -5.31, 0.0, 0.0, 0.0, 0.0, 1.23, 3.0, 3.36, 3.14, 3.96, 3.96, -4.08, -4.08, -4.08, -4.08, -4.08, -4.08, -4.08, -4.21, -4.21, -4.21, -4.34, -3.42, -3.28, -3.28, -3.28, -2.15, -2.01, -2.01, -2.01, -2.01, -2.07, -1.04, -0.98, 0.0, 0.0, 0.0, 0.0, 0.0, 0.0, 0.0, 0.0, 0.0, 0.0, 0.0, -1.27, -1.27, 0.0, 0.0, 0.0, 0.0, 0.0, -1.48, 0.0, 0.0, 1.54, 2.39, 1.33, 1.44, 1.44, 1.04, 1.09, 1.22, 2.7, 5.7, 8.93, 9.6, 8.93, 9.75, 9.39, 9.39, 6.32, 2.83, 4.2, 9.11, 10.28, 11.91, 9.67, 0.0, -8.8, -3.82, 0.0, 0.0, 0.0, -1.43, -3.47, -3.24, -3.46, 0.0, 4.3, 0.0, -5.81, -11.72, -13.29, -13.39, -12.71, -12.96, -12.3, -11.53, -6.4, -2.81, 0.0, 0.0, 1.83, 2.5, 4.66, 5.15, 4.55, 4.55, -4.08, -4.08, -4.08, -4.08, -4.08, -4.08, -4.08, -4.21, -4.21, -4.21, -4.21, -3.42, -3.18, -3.28, -3.37, -3.28, -2.15, -2.15, -2.01, -2.01, -2.07, -2.07, -2.07, -1.04, -0.98, -0.98, -0.95, 0.0, 0.0, 0.0, 0.0, 0.0, 0.0, 0.0, 0.0, 0.0, 0.0, 0.0, 0.0, 0.0, 0.0, 0.0, 0.0, 2.13, 2.31, 2.7, 1.71, 1.66, 1.66, 1.38, 1.23, 1.04, 2.7, 5.46, 7.27, 8.24, 8.93, 8.93, 9.6, 9.33, 3.32, 4.0, 6.79, 9.39, 9.39, 10.32, 9.48, 7.24, -6.64, -7.87, 0.0, 5.4, 5.73, 2.72, -3.79, -8.48, -8.27, -4.73, 0.0, 1.0, -1.16, -7.7, -8.9, -5.92, -4.87, -6.4, -7.69, -4.38, 0.0, 0.0, 5.31, 6.4, 6.6, 4.5, 4.81, 5.67, 4.74, 4.74, -3.94, -3.94, -4.08, -4.08, -4.08, -4.08, -4.38, -4.52, -4.52, -4.34, -4.34, -4.21, -3.42, -3.18, -3.28, -3.28, -3.28, -2.21, -2.21, -2.07, -2.07, -2.07, -2.07, -2.07, -1.04, -0.98, -0.95, -0.92, 0.0, 0.0, 0.0, 0.0, 0.0, 0.0, 0.0, 0.0, 0.0, 0.0, 0.0, 0.0, 0.0, 1.38, 2.32, 3.08, 3.32, 2.49, 3.14, 2.81, 2.81, 2.63, 2.52, 2.04, 2.97, 4.66, 6.3, 7.27, 8.24, 9.3, 8.93, 7.59, 5.63, 7.33, 8.0, 8.94, 8.94, 9.21, 8.18, 6.95, 6.17, 0.0, 9.33, 8.93, 7.43, 8.0, 4.14, -5.04, -12.26, -10.75, -7.68, -2.93, -1.78, -2.97, -4.25, -2.25, 0.0, 0.0, 0.87, 1.26, 2.72, 5.45, 6.51, 7.2, 6.98, 6.6, 6.37, 5.99, 5.63, 5.63, -4.81, -4.81, -4.81, -4.97, -4.08, -4.38, -4.38, -4.52, -4.52, -4.66, -4.34, -4.34, -3.32, -3.52, -3.28, -3.28, -3.28, -3.37, -2.28, -2.28, -2.28, -2.13, -2.07, -2.07, -2.07, -1.04, -0.95, -0.95, 0.0, 0.0, 0.0, 0.0, 1.6, 0.0, 0.0, 0.0, 0.0, 0.0, 0.0, 0.0, 0.0, 1.3, 3.36, 2.94, 2.71, 2.94, 3.14, 3.58, 2.28, 2.24, 2.02, 1.75, 1.94, 2.83, 3.3, 5.72, 7.27, 8.24, 8.24, 8.59, 8.58, 8.4, 7.89, 8.24, 8.94, 8.49, 7.2, 6.64, 7.27, 7.59, 8.43, 7.27, 6.44, 5.98, 7.03, 3.25, -12.92, -12.52, -10.79, -7.15, -4.16, -1.78, -1.09, 0.0, 0.0, 1.43, 2.11, 2.65, 2.81, 4.65, 5.8, 6.21, 6.0, 5.99, 5.81, 5.48, 5.31, 5.31, -4.81, -4.81, -4.81, -4.97, -5.33, -5.33, -4.38, -4.52, -4.52, -4.66, -4.66, -4.34, -4.34, -3.32, -3.52, -3.28, -3.28, -3.28, -2.21, -2.28, -2.28, -2.28, -2.13, -2.07, -2.01, -1.01, -1.01, -0.89, -0.92, 0.0, 0.0, 0.0, 0.0, 0.0, 0.0, 0.0, 0.0, 0.0, 0.0, 0.0, 0.0, 1.34, 2.35, 3.18, 2.82, 3.06, 2.13, 2.28, 2.11, 2.61, 2.28, 1.75, 1.75, 1.94, 2.97, 5.21, 5.9, 7.27, 8.24, 8.59, 8.73, 7.07, 7.81, 7.63, 8.24, 7.63, 7.2, 6.79, 6.95, 6.7, 6.58, 3.98, 0.0, 0.0, 2.85, 6.43, 0.0, -11.16, -12.88, -9.34, -5.5, -2.87, 0.0, 2.34, 1.13, 0.89, 0.78, 1.43, 2.81, 4.81, 6.63, 6.4, 5.27, 4.74, 4.21, 5.3, 5.31, 5.31, -4.81, -4.81, -4.81, -5.62, -6.2, -6.2, -5.73, -5.5, -4.52, -4.66, -4.66, -4.81, -4.34, -3.32, -3.42, -3.52, -3.52, -3.52, -2.21, -2.28, -2.28, -2.34, -2.28, -2.28, -2.15, -2.01, -1.01, -0.98, -0.92, -0.98, -1.13, 0.0, 0.0, 0.0, 0.0, 0.0, 0.0, 0.0, 0.0, 0.0, 0.0, 1.37, 2.5, 2.32, 2.08, 2.08, 2.06, 2.28, 3.12, 2.71, 2.21, 1.54, 1.68, 1.84, 3.11, 5.21, 6.17, 6.69, 7.27, 8.24, 9.3, 6.95, 7.44, 7.81, 8.33, 7.89, 6.9, 5.69, 5.21, 5.29, 5.72, 4.32, 0.0, 0.0, 0.0, 4.06, 7.53, -8.4, -16.09, -12.22, -7.98, -3.79, 2.72, 10.19, 5.37, 0.0, 0.0, 0.8, 2.28, 5.6, 8.53, 8.85, 5.6, 2.81, 2.72, 4.34, 5.14, 5.14, -4.81, -4.81, -4.81, -5.62, -6.2, -6.64, -6.64, -6.85, -6.1, -5.04, -4.81, -4.81, -3.69, -3.58, -3.58, -3.42, -3.42, -3.42, -3.42, -2.21, -2.28, -2.28, -2.28, -2.28, -2.21, -2.15, -2.01, -0.98, -0.98, -1.01, -1.08, -1.26, 0.0, 0.0, 0.0, 0.0, 0.0, 0.0, 0.0, 0.0, 0.0, 1.34, 1.26, 2.2, 2.16, 2.08, 2.24, 2.2, 3.25, 3.14, 2.41, 2.49, 1.62, 1.93, 3.11, 4.4, 6.17, 6.69, 6.69, 8.22, 8.82, 9.3, 8.4, 9.11, 9.11, 7.44, 5.69, 3.8, 3.32, 5.21, 6.95, 7.26, 5.11, 2.2, 0.0, 3.11, 7.11, 6.91, 0.0, -7.8, -9.49, -7.2, 14.79, 13.23, 7.2, 2.28, 1.15, 2.35, 6.9, 7.78, 8.85, 8.53, 3.96, 2.06, 1.9, 1.96, 4.11, 4.11, -4.51, -4.51, -4.51, -4.81, -5.33, -6.64, -6.85, -7.36, -7.59, -6.1, -5.19, -4.81, -4.81, -4.66, -3.58, -3.69, -3.42, -3.42, -3.42, -3.52, -2.21, -2.28, -2.28, -2.28, -2.21, -2.15, -2.15, -1.95, -0.98, -2.01, -2.01, -1.17, -1.34, 0.0, 0.0, 0.0, 0.0, 0.0, 0.0, 0.0, 0.0, 0.0, 1.3, 1.11, 2.16, 2.08, 2.16, 2.32, 2.4, 2.13, 1.91, 1.69, 1.62, 1.76, 2.13, 4.4, 6.69, 7.27, 7.27, 7.56, 7.85, 8.49, 8.8, 7.2, 7.07, 6.64, 2.54, 2.69, 6.32, 8.0, 9.2, 7.27, 5.45, 2.9, 1.13, 0.0, 5.13, 7.49, 5.77, 1.98, -4.03, -11.06, 14.75, 7.93, 4.38, 4.38, 8.31, 9.48, 9.17, 7.19, 7.19, 3.96, 3.96, 0.0, 0.0, 0.0, 1.72, 1.72, -4.36, -4.36, -4.51, -3.68, -4.08, -5.33, -5.92, -7.36, -7.59, -6.6, -6.8, -5.19, -5.19, -5.19, -3.58, -3.58, -3.69, -3.42, -3.42, -3.52, -2.38, -2.38, -2.28, -2.28, -2.21, -2.15, -2.15, -1.95, -1.95, -2.01, -2.01, -2.15, -1.23, 0.0, 0.0, 0.0, 0.0, 0.0, 0.0, 0.0, 0.0, 0.0, 0.0, 1.61, 1.02, 0.97, 1.05, 1.13, 1.17, 1.17, 1.0, 1.84, 1.69, 1.76, 1.93, 4.4, 7.27, 7.74, 6.98, 7.27, 7.85, 9.16, 8.8, 7.07, 7.07, 5.21, 2.54, 7.07, 8.82, 8.6, 8.15, 6.17, 5.6, 7.2, 5.51, 0.0, -2.43, 0.0, 0.98, 2.52, 1.9, 0.0, 0.0, 0.0, 3.36, 5.15, 8.31, 7.44, 4.24, 4.24, 4.1, 0.0, 0.0, 0.0, 0.0, 0.0, 0.0, 0.0, -3.56, -3.56, -3.68, -3.68, -3.81, -4.08, -4.52, -4.89, -6.6, -7.16, -6.8, -5.64, -5.19, -4.0, -4.0, -3.58, -3.58, -3.69, -3.42, -3.52, -2.38, -2.38, -2.21, -2.28, -2.21, -2.15, -2.09, -2.09, -1.95, -1.95, -2.01, -1.95, -2.24, -1.34, 0.0, 0.0, 0.0, 0.0, -1.38, -1.3, 0.0, 0.0, 0.0, 0.0, 0.89, 0.97, 1.05, 0.0, 0.0, 0.0, 1.13, 1.05, 1.92, 1.76, 2.83, 3.99, 7.27, 7.27, 6.71, 5.92, 7.85, 8.53, 8.58, 6.01, 5.69, 4.96, 7.07, 7.97, 8.41, 8.06, 7.44, 7.27, 7.02, 8.4, 9.42, 7.57, -6.4, -8.64, -6.65, -3.68, 0.0, 2.11, 0.0, -11.38, 0.0, 0.0, 3.36, 3.25, 0.0, 0.0, 0.0, 0.0, 0.0, 0.0, -3.96, -2.45, -3.96, 0.0, -3.56, -3.56, -3.56, -2.81, -2.9, -2.9, -3.0, -3.22, -3.88, -5.99, -2.98, -4.37, -4.0, -4.0, -3.69, -3.58, -3.58, -3.58, -3.42, -2.31, -2.38, -2.38, -2.38, -2.21, -2.21, -2.15, -2.09, -2.09, -2.02, -1.89, -1.95, -1.95, -2.09, -2.43, 0.0, 0.0, 0.0, 0.0, -1.38, -1.38, -1.3, -1.3, 0.0, 0.0, 0.0, 1.09, 0.0, 0.0, 0.0, 0.0, 1.17, 1.09, 1.92, 1.84, 2.59, 3.65, 6.17, 6.98, 5.92, 5.92, 7.02, 7.85, 6.64, 6.64, 4.96, 7.81, 8.49, 8.49, 8.38, 7.67, 8.0, 8.15, 9.08, 9.48, 10.19, 12.37, 8.8, 0.0, -3.82, -4.95, -7.0, -7.4, -12.64, -15.99, -10.75, 0.0, 0.0, 0.0, 0.0, 0.0, 0.0, 0.0, -3.04, -3.96, -6.94, -5.4, -6.7, -3.96, -3.56, -3.56, -3.56, -2.63, -2.63, -2.72, -2.9, -2.02, -2.18, -1.23, -2.43, -2.64, -4.0, -3.69, -3.58, -3.58, -3.58, -3.58, -3.58, -2.31, -2.31, -2.31, -2.31, -2.38, -2.21, -2.21, -2.09, -2.02, -2.02, -1.89, -1.89, -1.95, -1.95, -2.24, -1.3, 0.0, 0.0, 0.0, -1.42, -1.34, -2.64, -2.5, -1.19, -1.04, 0.0, 0.0, 0.0, 1.42, 1.47, 1.42, 1.25, 1.13, 1.92, 1.62, 2.39, 3.36, 5.7, 6.24, 4.8, 5.0, 7.02, 7.02, 7.51, 6.95, 7.81, 9.11, 8.33, 9.39, 8.33, 8.91, 9.03, 8.63, 8.58, 6.45, 8.05, 12.17, 15.08, 14.37, 12.37, 9.42, 11.06, -12.33, -18.66, -13.28, -14.79, -12.96, 0.0, 0.0, 0.0, 0.0, -3.04, -3.04, -5.6, -8.85, -7.51, -8.53, -8.53, -8.53, -3.44, -3.44, -3.56, -2.72, -2.63, -2.63, -1.83, -2.02, -2.02, -1.1, -2.24, -2.43, -3.58, -3.58, -3.58, -3.58, -3.58, -3.58, -3.58, -2.24, -2.31, -2.31, -2.31, -2.31, -2.31, -2.15, -2.09, -2.02, -2.02, -1.96, -1.83, -1.83, -1.89, -2.02, -2.35, -1.38, 0.0, 0.0, -1.38, -2.81, -2.56, -2.56, -2.28, -2.06, -1.98, -1.11, 0.0, 0.0, 0.0, 1.25, 1.21, 1.09, 0.82, 1.54, 1.62, 3.36, 5.95, 5.69, 5.0, 4.4, 5.77, 7.02, 6.76, 7.27, 8.18, 8.4, 9.11, 9.11, 8.33, 9.26, 8.91, 7.15, 4.8, 4.88, 6.94, 9.31, 12.85, 15.12, 16.12, 15.33, 13.63, 12.89, -22.35, -9.2, -5.51, -9.48, -12.52, 0.0, -5.8, -3.14, -5.6, -7.51, -8.85, -8.85, -8.53, -8.53, -8.53, -8.53, -3.44, -3.44, -3.56, -3.56, -2.81, -2.63, -1.83, -1.96, -1.96, -2.02, -2.18, -2.24, -3.32, -3.32, -3.32, -2.43, -2.43, -2.43, -2.43, -2.43, -2.31, -2.31, -2.31, -2.31, -2.31, -2.15, -2.09, -2.02, -1.96, -1.96, -1.77, -1.77, -1.77, -1.83, -2.18, -1.21, 0.0, 0.0, 0.0, -1.33, -2.72, -3.65, -3.53, -3.18, -3.06, -2.13, -1.19, 0.0, 0.0, 0.0, 0.0, 0.0, 0.78, 0.78, 1.62, 2.59, 4.8, 5.21, 5.0, 4.4, 5.77, 5.99, 7.02, 8.53, 8.55, 8.8, 9.11, 9.83, 8.94, 8.77, 7.15, 6.32, 5.86, 6.58, 7.27, 7.68, 7.73, 9.83, 11.42, 15.12, 16.09, 15.25, 12.72, -21.99, -4.88, -6.8, -12.52, -11.6, -9.17, -7.78, -7.51, -8.85, -9.42, -10.41, -8.53, 0.0, 0.0, 0.0, -3.44, -3.44, -3.56, -3.56, -2.81, -2.81, -2.9, -2.9, -3.0, -3.0, -3.0, -3.32, -3.32, -3.32, -2.24, -2.24, -2.24, -2.24, -2.43, -2.43, -2.31, -2.31, -2.31, -2.31, -2.31, -2.31, -2.09, -2.02, -1.96, -1.9, -1.9, -1.77, -1.77, -2.63, -1.9, -2.2, -1.29, -1.48, 0.0, -1.48, -1.33, -2.4, -3.41, -3.06, -2.94, -2.16, -2.4, -1.21, -1.21, 0.0, 0.0, 0.0, 0.0, 0.78, 1.62, 4.25, 4.6, 5.21, 5.0, 4.4, 4.4, 5.77, 7.02, 8.22, 9.66, 8.8, 8.48, 8.48, 9.39, 8.4, 7.81, 7.15, 8.4, 7.9, 6.98, 5.64, 4.24, 4.66, 8.6, 11.4, 15.06, 16.8, 15.16, 7.58, -15.49, -8.8, -11.38, -9.17, -10.37, -8.85, -9.17, -10.8, -10.41, -8.53, 0.0, 0.0, 0.0, 0.0, -3.44, -3.44, -3.56, -3.56, -3.56, -2.81, -2.81, -2.9, -3.0, -3.0, -3.0, -3.0, -3.09, -3.32, -2.24, -2.24, -2.24, -2.24, -2.24, -2.43, -2.43, -2.31, -2.31, -2.31, -2.31, -2.31, -2.24, -2.02, -1.96, -2.9, -2.81, -2.54, -2.54, -2.54, -2.54, -1.83, -2.13, -1.29, -1.48, 0.0, -1.43, -1.29, -2.32, -2.08, -2.0, -1.98, -2.13, -2.13, -2.32, -1.09, 0.0, 0.0, 0.0, 0.85, 0.89, 3.36, 4.6, 4.36, 5.0, 4.4, 4.4, 5.54, 7.02, 8.53, 9.09, 8.55, 8.48, 8.06, 8.4, 7.81, 8.4, 9.33, 8.05, 6.14, 4.23, 2.42, 2.24, 4.38, 7.43, 11.73, 14.86, 15.02, 14.64, 13.11, 5.64, -19.99, -16.79, -11.16, -12.96, 0.0, 0.0, -12.52, -12.07, 0.0, 0.0, 0.0, 0.0, 0.0, -3.44, -3.44, -3.56, -3.56, -3.68, -2.81, -2.81, -2.9, -2.9, -3.0, -3.0, -3.0, -3.09, -3.32, -2.24, -2.24, -2.24, -2.24, -2.24, -2.24, -2.43, -2.31, -2.31, -2.31, -2.31, -2.31, -2.24, -2.02, -2.9, -2.9, -2.81, -2.72, -2.54, -2.45, -2.45, -1.77, -1.9, -2.24, -1.29, -1.43, -1.61, -1.43, -1.43, -1.2, -2.0, -2.16, -2.24, -1.13, -1.13, -1.05, 0.0, 0.0, 0.0, 0.0, 2.59, 3.65, 4.6, 3.98, 3.53, 3.92, 4.23, 5.54, 7.44, 8.53, 9.46, 8.55, 8.48, 8.48, 9.33, 9.2, 9.13, 9.13, 5.9, 3.11, 1.52, 2.71, 5.4, 7.96, 9.48, 10.82, 12.64, 13.61, 13.42, 15.5, 15.29, -23.25, -16.39, -7.44, -0.0, 3.82, -0.0, -0.0, -0.0, -0.0, -0.0, -0.0, -0.0, -0.0, -3.44, -3.44, -3.56, -3.56, -3.56, -2.81, -2.9, -2.9, -2.9, -2.9, -3.0, -3.0, -3.0, -2.09, -2.24, -2.24, -2.24, -2.24, -2.24, -2.18, -2.18, -2.24, -2.31, -2.31, -2.31, -2.31, -2.24, -2.02, -2.9, -2.9, -2.81, -2.81, -2.54, -2.45, -2.45, -2.53, -1.71, -1.9, -2.24, -2.45, -1.38, -1.55, -1.55, -1.33, -2.42, -2.37, -2.45, -1.25, 0.0, 0.0, 0.0, 0.0, 0.0, 0.0, 2.7, 3.65, 3.82, 3.82, 3.39, 4.23, 4.23, 5.95, 7.44, 8.53, 8.93, 7.59, 7.81, 8.91, 8.8, 6.95, 4.6, 5.46, 3.82, 3.25, 6.42, 8.93, 9.46, 10.04, 10.12, 10.02, 10.17, 12.16, 14.4, 16.65, 17.28, 0.0, -9.54, -2.13, 2.45, 5.4, 2.93, -0.0, -0.0, -0.0, -0.0, -0.0, -0.0, -0.0, -3.44, -3.44, -3.56, -3.56, -3.56, -3.94, -3.12, -2.9, -2.9, -3.0, -3.0, -3.0, -2.09, -2.09, -2.24, -2.24, -2.24, -2.24, -2.24, -2.24, -2.24, -2.43, -2.31, -2.31, -2.31, -2.24, -2.24, -2.18, -2.9, -2.81, -2.81, -2.81, -2.54, -2.45, -2.62, -2.53, -1.71, -1.84, -1.84, -2.06, -2.45, -2.72, -3.04, -2.62, -2.52, -2.72, -1.43, 0.0, 0.0, 0.0, 0.0, 0.0, 0.0, 0.0, 2.7, 3.65, 3.65, 2.95, 3.61, 4.23, 4.8, 5.95, 6.2, 7.73, 8.22, 8.58, 7.87, 8.91, 6.95, 4.2, 0.0, 6.95, 5.7, 9.96, 10.65, 10.47, 10.0, 10.16, 10.41, 9.69, 9.21, 11.13, 14.6, 15.55, 16.09, 14.03, -0.0, 3.14, 11.16, 9.17, 3.82, -0.0, -0.0, -0.0, -0.0, -0.0, -0.0, -0.0, -3.44, -3.44, -3.56, -3.56, -3.56, -3.94, -3.12, -3.12, -3.12, -3.22, -3.0, -3.0, -3.32, -3.32, -2.24, -2.24, -2.24, -2.24, -2.24, -2.24, -2.24, -2.24, -2.31, -3.42, -2.24, -2.24, -3.32, -3.22, -2.9, -2.9, -2.81, -2.81, -2.72, -2.45, -2.62, -2.53, -1.84, -1.84, -0.93, -1.84, -1.98, -3.18, -3.47, -3.47, -2.37, -1.25, 0.0, 0.0, 0.0, 0.0, 0.0, 0.0, 0.0, 1.75, 2.7, 3.49, 2.83, 2.83, 3.45, 4.05, 4.6, 5.7, 5.95, 6.45, 8.53, 8.22, 9.2, 6.95, 6.17, 5.46, 6.95, 9.39, 9.11, 10.18, 10.73, 11.09, 10.46, 10.4, 10.24, 9.17, 8.91, 8.91, 10.19, 10.9, 11.77, -20.79, -0.0, 10.41, 12.72, 9.8, 9.8, -0.0, 4.24, -0.0, -0.0, 9.17, 9.17, 9.17, -3.44, -3.44, -3.44, -3.56, -3.81, -2.92, -3.02, -3.12, -3.12, -3.22, -3.22, -3.32, -3.32, -3.32, -3.32, -3.32, -3.32, -3.32, -2.24, -2.24, -2.24, -2.24, -3.32, -3.32, -3.32, -3.32, -3.32, -3.22, -2.9, -2.9, -2.81, -2.81, -2.72, -2.54, -2.45, -2.53, -2.71, -1.77, -0.89, -1.77, -1.84, -1.84, -2.93, -2.82, -1.98, -1.04, 0.0, 0.0, 1.0, 1.01, 0.93, 0.0, 0.0, 1.75, 2.7, 2.7, 2.7, 3.11, 3.45, 3.87, 4.6, 4.6, 5.95, 6.2, 7.54, 9.08, 8.93, 7.27, 7.27, 8.43, 8.05, 9.11, 9.39, 9.13, 10.18, 10.73, 11.06, 11.18, 10.09, 9.5, 9.17, 8.61, 7.44, 6.64, 3.14, 0.0, 15.65, 8.53, 0.0, 0.0, 0.0, -6.4, 10.12, 12.39, 13.41, 13.41, 13.41, 13.41, -3.44, -3.44, -3.44, -3.81, -3.81, -2.92, -3.02, -3.12, -3.12, -3.22, -3.22, -3.32, -3.32, -3.32, -3.32, -3.32, -3.32, -3.32, -2.24, -2.24, -2.24, -3.32, -3.32, -3.32, -3.32, -3.32, -3.22, -3.22, -3.12, -3.02, -3.02, -2.72, -2.72, -2.54, -2.45, -2.53, -2.71, -1.77, -1.77, -1.77, -0.89, -1.77, -1.77, -1.77, -0.89, 0.0, 0.0, 0.93, 1.0, 0.93, 0.0, 0.0, 0.0, 1.84, 2.57, 2.35, 1.84, 2.97, 3.3, 3.87, 3.87, 4.05, 4.6, 5.0, 7.26, 9.42, 8.53, 7.9, 8.82, 8.8, 9.33, 10.14, 10.28, 10.58, 9.75, 10.73, 11.18, 11.02, 10.0, 8.93, 8.53, 7.68, 7.21, 4.12, 1.11, 3.45, 0.0, -12.96, -11.6, -8.66, -6.6, -4.66, 14.75, 14.3, 13.15, 11.53, 11.53, 11.53, -3.44, -3.44, -3.68, -3.68, -3.81, -2.92, -3.02, -3.02, -3.12, -3.12, -3.22, -3.22, -3.32, -3.32, -3.32, -3.32, -3.32, -3.32, -3.32, -3.42, -3.32, -3.32, -3.32, -3.32, -3.32, -3.22, -3.22, -3.22, -3.12, -3.02, -3.02, -2.72, -2.72, -2.45, -2.45, -2.53, -2.71, -2.61, -1.77, -1.7, -1.77, -0.89, -0.89, -0.89, -0.86, 0.0, 0.0, 0.0, 0.97, 0.0, 0.0, 0.0, 0.98, 1.93, 1.84, 1.6, 1.75, 1.94, 3.7, 3.7, 2.58, 2.7, 3.25, 4.8, 6.98, 8.22, 8.53, 9.58, 9.2, 9.13, 9.64, 10.28, 10.73, 10.58, 10.38, 10.58, 11.18, 11.02, 9.3, 8.38, 7.9, 7.68, 8.6, 7.63, 9.47, 12.34, -3.33, -13.15, -13.41, -13.59, -14.75, 0.0, 14.75, 14.3, 13.88, 13.28, 13.28, 13.28, -3.68, -3.68, -3.68, -3.68, -3.68, -2.92, -3.02, -3.12, -3.12, -3.12, -3.12, -3.22, -3.32, -3.32, -3.32, -3.32, -3.32, -3.32, -3.32, -3.42, -3.42, -3.32, -3.32, -3.32, -3.22, -3.22, -3.22, -3.12, -3.12, -3.02, -3.02, -2.92, -2.72, -2.62, -2.45, -2.53, -2.53, -2.61, -1.77, -1.7, -1.7, -0.89, -0.89, -0.86, 0.0, 0.0, 0.0, 0.0, 0.0, 0.0, 0.0, 0.0, 0.98, 1.93, 1.93, 1.84, 1.75, 2.17, 2.46, 2.58, 2.58, 2.58, 3.11, 5.29, 5.75, 8.22, 8.22, 9.58, 9.6, 9.54, 9.83, 10.08, 10.08, 10.41, 9.96, 8.23, 10.96, 11.02, 9.3, 8.59, 8.22, 7.24, 9.76, 11.15, 13.85, 16.76, -4.95, -2.63, -3.36, -0.0, 2.89, 12.27, 15.2, 14.31, 14.03, 13.28, 13.28, 13.28, -3.68, -3.68, -3.68, -3.68, -3.68, -2.81, -2.92, -3.02, -3.02, -3.02, -3.12, -3.22, -3.22, -3.32, -3.32, -3.32, -3.32, -3.32, -3.32, -3.42, -3.42, -3.42, -3.42, -3.32, -3.22, -3.22, -3.22, -3.12, -3.12, -3.02, -2.92, -2.92, -2.81, -2.62, -2.62, -2.53, -2.53, -2.61, -1.7, -1.84, -1.84, -0.86, -0.86, -0.86, 0.0, 0.0, 0.0, 0.0, 0.0, 0.0, 0.0, 0.0, 1.14, 0.98, 1.93, 1.84, 2.04, 2.17, 2.46, 1.26, 1.33, 1.33, 3.11, 3.82, 6.44, 6.71, 7.9, 8.94, 9.55, 9.83, 10.08, 9.97, 10.18, 10.6, 10.84, 9.2, 8.18, 10.28, 8.58, 7.59, 7.9, 6.51, 7.2, 9.19, 11.23, 12.08, -16.54, -0.0, 4.38, 7.59, 10.75, 14.11, 15.65, 14.9, 14.47, 13.28, 13.28, 13.28, -3.68, -3.68, -3.68, -3.68, -3.81, -2.92, -2.92, -2.92, -3.02, -3.02, -3.12, -3.22, -3.22, -3.32, -3.58, -3.32, -3.32, -3.32, -3.32, -3.32, -3.42, -3.42, -3.42, -3.32, -3.22, -3.22, -3.22, -3.12, -3.02, -3.02, -2.92, -2.81, -2.81, -2.81, -2.53, -2.53, -2.53, -2.61, -2.61, -1.84, -1.84, -0.93, -0.93, -0.93, -0.89, 0.0, 0.0, 0.0, 0.0, 0.0, -0.85, 0.0, 1.14, 0.98, 0.98, 0.98, 1.04, 1.11, 1.11, 1.11, 1.26, 1.33, 3.11, 3.82, 4.6, 4.8, 7.59, 8.58, 10.08, 10.28, 10.28, 10.18, 10.18, 10.6, 10.41, 9.97, 9.33, 9.33, 9.75, 7.59, 5.0, 4.24, 3.76, 3.68, 3.48, 5.07, 0.0, -11.7, 2.89, 13.03, 13.97, 14.42, 15.65, 14.53, 13.7, 13.99, 13.99, 13.99, -3.68, -3.68, -3.68, -3.68, -3.81, -3.81, -2.92, -3.02, -3.02, -3.02, -3.12, -3.12, -3.22, -3.58, -3.58, -3.58, -3.32, -3.32, -3.32, -3.42, -3.42, -3.42, -3.42, -3.32, -3.22, -3.22, -3.12, -3.12, -3.02, -2.92, -3.81, -3.68, -3.68, -2.71, -2.53, -2.53, -2.44, -2.61, -2.61, -1.84, -1.84, -0.93, -0.93, -0.89, -0.89, -0.89, -0.89, 0.0, -0.85, -0.85, -0.85, 0.0, 0.0, 0.98, 0.98, 0.98, 1.04, 1.16, 1.11, 0.0, 1.26, 1.26, 1.54, 1.93, 4.4, 4.4, 7.27, 9.2, 9.97, 10.73, 10.73, 9.6, 7.59, 7.9, 10.18, 10.28, 9.83, 9.39, 9.83, 4.8, 3.53, 2.82, 1.25, 0.0, 0.0, 0.0, 0.0, -1.98, -11.06, 15.18, 15.53, 14.75, 15.65, 15.04, 14.61, 13.19, 13.19, 13.19, -3.68, -3.68, -3.68, -3.96, -4.1, -4.1, -3.81, -3.94, -3.94, -3.94, -3.12, -3.12, -3.47, -3.47, -3.58, -3.47, -3.47, -3.32, -3.32, -3.32, -3.42, -3.42, -3.42, -3.42, -3.22, -3.12, -4.08, -4.08, -3.94, -3.81, -3.81, -3.68, -3.68, -2.71, -2.71, -2.53, -2.53, -2.61, -2.82, -2.71, -1.84, -1.84, -1.76, -1.76, -1.76, -0.89, -0.93, -0.93, -0.85, -0.85, -0.93, 0.0, 0.0, 0.0, 0.0, 0.0, 1.16, 0.0, 0.0, 0.0, 0.0, 1.4, 1.47, 1.75, 2.28, 5.21, 5.46, 6.95, 6.95, 8.8, 9.83, 7.59, 4.8, 4.6, 4.6, 7.27, 10.28, 9.83, 0.0, 3.39, 1.84, 1.44, 0.0, 0.0, 0.0, 0.0, 0.0, 0.0, 0.0, 7.4, 15.87, 15.18, 15.65, 15.61, 14.65, 13.58, 13.58, 13.58, -3.68, -3.68, -3.68, -3.96, -3.96, -4.1, -3.81, -3.81, -3.94, -3.94, -4.08, -3.36, -3.47, -3.47, -3.47, -3.47, -3.47, -3.47, -3.58, -3.58, -3.58, -3.69, -3.42, -3.32, -4.21, -4.08, -4.38, -4.24, -4.24, -3.81, -3.81, -3.68, -3.55, -2.71, -2.71, -2.53, -2.53, -2.61, -2.82, -2.82, -2.0, -1.84, -1.84, -1.76, -1.76, -1.92, -1.84, -1.84, -1.69, -1.69, -0.89, 0.0, 0.0, 0.0, 0.0, 0.0, 0.0, 0.0, 0.0, 0.0, 0.0, 0.0, 0.0, 0.0, 0.0, 2.97, 2.97, 4.2, 4.2, 8.8, 9.83, 11.18, -0.0, -0.0, -0.0, -0.0, 10.28, 7.27, 4.6, 2.6, 0.0, 0.0, 0.0, 1.15, 1.06, 1.98, 1.95, 2.35, 2.48, 2.33, 16.05, 15.9, 16.54, 16.37, 15.2, 12.73, 12.73, 12.73, -3.68, -3.68, -4.1, -4.1, -4.1, -4.1, -4.1, -3.81, -3.81, -3.94, -4.24, -3.36, -3.47, -3.47, -3.47, -3.47, -3.47, -3.47, -3.47, -3.58, -3.58, -3.58, -3.58, -4.34, -4.52, -4.38, -4.38, -4.24, -4.24, -4.1, -2.92, -2.81, -2.71, -2.71, -2.71, -2.61, -2.44, -2.61, -2.61, -2.71, -2.0, -2.0, -1.84, -1.76, -2.6, -1.92, -1.92, -1.84, -1.69, -1.84, -0.98, 0.0, 0.0, 0.0, 0.0, 0.0, 0.0, 0.0, 0.0, 0.0, 0.0, 0.0, 0.0, 0.0, 0.0, 0.0, 0.0, 0.0, 0.0, 6.64, 9.83, 9.83, 9.83, -0.0, -0.0, 7.27, 10.28, 7.27, 5.7, 4.8, 3.53, 1.44, 1.17, 1.17, 2.25, 3.93, 4.56, 4.14, 3.62, 3.36, 7.6, 16.99, 16.66, 16.66, 14.18, 11.06, 11.06, 11.06, -3.68, -3.68, -4.1, -4.1, -4.1, -4.1, -4.1, -3.81, -3.81, -3.94, -4.24, -3.36, -3.47, -3.47, -3.47, -3.47, -3.47, -3.47, -3.47, -3.58, -3.58, -3.58, -3.58, -4.34, -4.52, -4.38, -4.38, -4.24, -4.24, -4.1, -2.92, -2.81, -2.71, -2.71, -2.71, -2.61, -2.44, -2.61, -2.61, -2.71, -2.0, -2.0, -1.84, -1.76, -2.6, -1.92, -1.92, -1.84, -1.69, -1.84, -0.98, 0.0, 0.0, 0.0, 0.0, 0.0, 0.0, 0.0, 0.0, 0.0, 0.0, 0.0, 0.0, 0.0, 0.0, 0.0, 0.0, 0.0, 0.0, 6.64, 9.83, 9.83, 9.83, -0.0, -0.0, 7.27, 7.27, 7.27, 5.7, 4.8, 3.53, 2.71, 2.37, 2.35, 3.33, 4.05, 5.41, 6.36, 6.06, 6.08, 5.65, 12.33, 17.88, 16.96, 9.17, 7.0, 7.0, 7.0]}]